| time (UTC) | temp F | wind direction | speed MPH | gust MPH | rain 1hr in | rain 24hr in | rain mn in | humidity % | barometer mb |
| 20260505130224 | 79 | 205 | 1.0 | 19.0 | 0.00 | 0.00 | 0.00 | 31 | 1006.5 |
| 20260505130218 | 79 | 227 | 5.0 | 26.0 | 0.00 | 0.00 | 0.00 | 30 | 1006.6 |
| 20260505130202 | 79 | 147 | 4.0 | 26.0 | 0.00 | 0.00 | 0.00 | 29 | 1006.5 |
| 20260505130147 | 79 | 158 | 4.0 | 26.0 | 0.00 | 0.00 | 0.00 | 29 | 1006.7 |
| 20260505130132 | 79 | 5 | 3.0 | 26.0 | 0.00 | 0.00 | 0.00 | 31 | 1006.7 |
| 20260505130117 | 79 | 134 | 4.0 | 26.0 | 0.00 | 0.00 | 0.00 | 30 | 1006.7 |
| 20260505124905 | 80 | 180 | 8.0 | 16.0 | 0.00 | 0.00 | 0.00 | 29 | 1006.9 |
| 20260505124857 | 80 | 208 | 2.0 | 15.0 | 0.00 | 0.00 | 0.00 | 30 | 1006.8 |
| 20260505124842 | 81 | 201 | 1.0 | 21.0 | 0.00 | 0.00 | 0.00 | 31 | 1006.8 |
| 20260505124826 | 81 | 223 | 9.0 | 21.0 | 0.00 | 0.00 | 0.00 | 29 | 1006.8 |
| 20260505124550 | 81 | 209 | 1.0 | 21.0 | 0.00 | 0.00 | 0.00 | 29 | 1006.9 |
| 20260505124310 | 80 | 217 | 0.0 | 23.0 | 0.00 | 0.00 | 0.00 | 29 | 1006.8 |
| 20260505124208 | 80 | 187 | 0.0 | 23.0 | 0.00 | 0.00 | 0.00 | 30 | 1007.1 |
| 20260505124110 | 80 | 171 | 6.0 | 23.0 | 0.00 | 0.00 | 0.00 | 30 | 1006.8 |
| 20260505124010 | 80 | 251 | 6.0 | 23.0 | 0.00 | 0.00 | 0.00 | 29 | 1006.9 |
| 20260505123911 | 80 | 228 | 8.0 | 23.0 | 0.00 | 0.00 | 0.00 | 30 | 1007.0 |
| 20260505123829 | 79 | 262 | 3.0 | 23.0 | 0.00 | 0.00 | 0.00 | 30 | 1007.1 |
| 20260505123809 | 79 | 232 | 12.0 | 23.0 | 0.00 | 0.00 | 0.00 | 30 | 1007.1 |
| 20260505123709 | 79 | 61 | 1.0 | 23.0 | 0.00 | 0.00 | 0.00 | 29 | 1007.1 |
| 20260505123645 | 79 | 291 | 7.0 | 23.0 | 0.00 | 0.00 | 0.00 | 29 | 1006.8 |
| 20260505123629 | 79 | 306 | 2.0 | 23.0 | 0.00 | 0.00 | 0.00 | 29 | 1006.8 |
| 20260505123342 | 79 | 228 | 4.0 | 21.0 | 0.00 | 0.00 | 0.00 | 29 | 1006.8 |
| 20260505123309 | 79 | 266 | 6.0 | 21.0 | 0.00 | 0.00 | 0.00 | 29 | 1006.8 |
| 20260505123209 | 79 | 216 | 2.0 | 21.0 | 0.00 | 0.00 | 0.00 | 30 | 1007.1 |
| 20260505123109 | 79 | 164 | 7.0 | 21.0 | 0.00 | 0.00 | 0.00 | 29 | 1006.9 |
| 20260505123004 | 79 | 172 | 8.0 | 19.0 | 0.00 | 0.00 | 0.00 | 29 | 1007.0 |
| 20260505122918 | 79 | 194 | 4.0 | 21.0 | 0.00 | 0.00 | 0.00 | 28 | 1006.9 |
| 20260505122911 | 79 | 220 | 10.0 | 19.0 | 0.00 | 0.00 | 0.00 | 29 | 1006.9 |
| 20260505122857 | 79 | 195 | 5.0 | 19.0 | 0.00 | 0.00 | 0.00 | 29 | 1006.9 |
| 20260505122849 | 79 | 90 | 3.0 | 19.0 | 0.00 | 0.00 | 0.00 | 29 | 1006.9 |
| 20260505122833 | 79 | 228 | 5.0 | 21.0 | 0.00 | 0.00 | 0.00 | 30 | 1007.2 |
| 20260505122609 | 79 | 205 | 5.0 | 21.0 | 0.00 | 0.00 | 0.00 | 29 | 1006.9 |
| 20260505122553 | 79 | 181 | 0.0 | 21.0 | 0.00 | 0.00 | 0.00 | 29 | 1007.1 |
| 20260505122538 | 79 | 232 | 4.0 | 21.0 | 0.00 | 0.00 | 0.00 | 29 | 1007.0 |
| 20260505122259 | 79 | 219 | 9.0 | 21.0 | 0.00 | 0.00 | 0.00 | 29 | 1006.9 |
| 20260505122158 | 79 | 47 | 1.0 | 21.0 | 0.00 | 0.00 | 0.00 | 30 | 1007.3 |
| 20260505122058 | 79 | 217 | 13.0 | 21.0 | 0.00 | 0.00 | 0.00 | 28 | 1007.0 |
| 20260505121958 | 79 | 165 | 1.0 | 21.0 | 0.00 | 0.00 | 0.00 | 29 | 1007.0 |
| 20260505121859 | 78 | 180 | 1.0 | 21.0 | 0.00 | 0.00 | 0.00 | 30 | 1006.9 |
| 20260505121832 | 78 | 183 | 9.0 | 21.0 | 0.00 | 0.00 | 0.00 | 29 | 1007.1 |
| 20260505121758 | 78 | 219 | 8.0 | 21.0 | 0.00 | 0.00 | 0.00 | 29 | 1007.1 |
| 20260505121723 | 78 | 72 | 5.0 | 17.0 | 0.00 | 0.00 | 0.00 | 29 | 1007.2 |
| 20260505121708 | 78 | 196 | 1.0 | 17.0 | 0.00 | 0.00 | 0.00 | 30 | 1007.1 |
| 20260505121652 | 78 | 197 | 6.0 | 17.0 | 0.00 | 0.00 | 0.00 | 29 | 1007.2 |
| 20260505121637 | 77 | 172 | 1.0 | 17.0 | 0.00 | 0.00 | 0.00 | 31 | 1007.3 |
| 20260505121622 | 77 | 182 | 2.0 | 17.0 | 0.00 | 0.00 | 0.00 | 30 | 1007.0 |
| 20260505121106 | 77 | 195 | 1.0 | 19.0 | 0.00 | 0.00 | 0.00 | 31 | 1007.4 |
| 20260505121051 | 77 | 199 | 5.0 | 19.0 | 0.00 | 0.00 | 0.00 | 30 | 1007.3 |
| 20260505121037 | 77 | 153 | 0.0 | 19.0 | 0.00 | 0.00 | 0.00 | 30 | 1007.3 |
| 20260505121023 | 77 | 145 | 1.0 | 19.0 | 0.00 | 0.00 | 0.00 | 30 | 1007.5 |
| 20260505121015 | 77 | 191 | 2.0 | 19.0 | 0.00 | 0.00 | 0.00 | 30 | 1007.5 |
| 20260505120738 | 77 | 224 | 6.0 | 19.0 | 0.00 | 0.00 | 0.00 | 30 | 1007.4 |
| 20260505120503 | 77 | 181 | 6.0 | 19.0 | 0.00 | 0.00 | 0.00 | 30 | 1007.4 |
| 20260505120449 | 77 | 233 | 5.0 | 19.0 | 0.00 | 0.00 | 0.00 | 30 | 1007.4 |
| 20260505120134 | 77 | 126 | 11.0 | 19.0 | 0.00 | 0.00 | 0.00 | 30 | 1007.4 |
| 20260505120033 | 77 | 107 | 3.0 | 14.0 | 0.00 | 0.00 | 0.00 | 29 | 1007.4 |
| 20260505115934 | 77 | 189 | 4.0 | 14.0 | 0.00 | 0.00 | 0.00 | 31 | 1007.3 |
| 20260505115833 | 78 | 196 | 0.0 | 15.0 | 0.00 | 0.00 | 0.00 | 30 | 1007.2 |
| 20260505115755 | 78 | 208 | 10.0 | 15.0 | 0.00 | 0.00 | 0.00 | 30 | 1007.2 |
| 20260505115734 | 78 | 208 | 10.0 | 15.0 | 0.00 | 0.00 | 0.00 | 29 | 1007.5 |
| 20260505115633 | 78 | 166 | 9.0 | 15.0 | 0.00 | 0.00 | 0.00 | 29 | 1007.5 |
| 20260505115533 | 78 | 210 | 7.0 | 15.0 | 0.00 | 0.00 | 0.00 | 30 | 1007.3 |
| 20260505115433 | 78 | 138 | 4.0 | 15.0 | 0.00 | 0.00 | 0.00 | 29 | 1007.2 |
| 20260505115335 | 78 | 174 | 0.0 | 15.0 | 0.00 | 0.00 | 0.00 | 29 | 1007.1 |
| 20260505115249 | 78 | 184 | 0.0 | 15.0 | 0.00 | 0.00 | 0.00 | 29 | 1007.1 |
| 20260505115229 | 78 | 178 | 1.0 | 15.0 | 0.00 | 0.00 | 0.00 | 28 | 1007.3 |
| 20260505115129 | 78 | 228 | 6.0 | 15.0 | 0.00 | 0.00 | 0.00 | 29 | 1007.1 |
| 20260505115028 | 78 | 259 | 4.0 | 15.0 | 0.00 | 0.00 | 0.00 | 30 | 1007.3 |
| 20260505114927 | 78 | 207 | 2.0 | 23.0 | 0.00 | 0.00 | 0.00 | 29 | 1007.2 |
| 20260505114824 | 78 | 185 | 3.0 | 23.0 | 0.00 | 0.00 | 0.00 | 28 | 1007.3 |
| 20260505114758 | 78 | 78 | 3.0 | 23.0 | 0.00 | 0.00 | 0.00 | 29 | 1007.3 |
| 20260505114750 | 78 | 275 | 6.0 | 23.0 | 0.00 | 0.00 | 0.00 | 29 | 1007.3 |
| 20260505114734 | 78 | 236 | 5.0 | 23.0 | 0.00 | 0.00 | 0.00 | 29 | 1007.5 |
| 20260505114719 | 78 | 217 | 6.0 | 23.0 | 0.00 | 0.00 | 0.00 | 28 | 1007.7 |
| 20260505114703 | 78 | 234 | 4.0 | 23.0 | 0.00 | 0.00 | 0.00 | 28 | 1007.5 |
| 20260505114429 | 78 | 153 | 1.0 | 23.0 | 0.00 | 0.00 | 0.00 | 28 | 1007.4 |
| 20260505114111 | 78 | 232 | 1.0 | 23.0 | 0.00 | 0.00 | 0.00 | 28 | 1007.3 |
| 20260505114011 | 78 | 218 | 2.0 | 23.0 | 0.00 | 0.00 | 0.00 | 29 | 1007.2 |
| 20260505113911 | 78 | 207 | 6.0 | 23.0 | 0.00 | 0.00 | 0.00 | 28 | 1007.3 |
| 20260505113811 | 78 | 219 | 15.0 | 23.0 | 0.00 | 0.00 | 0.00 | 28 | 1007.5 |
| 20260505113744 | 78 | 219 | 15.0 | 23.0 | 0.00 | 0.00 | 0.00 | 29 | 1007.5 |
| 20260505113659 | 78 | 253 | 7.0 | 22.0 | 0.00 | 0.00 | 0.00 | 29 | 1007.4 |
| 20260505113557 | 78 | 159 | 4.0 | 22.0 | 0.00 | 0.00 | 0.00 | 29 | 1007.4 |
| 20260505113459 | 78 | 289 | 4.0 | 22.0 | 0.00 | 0.00 | 0.00 | 29 | 1007.4 |
| 20260505113359 | 78 | 199 | 1.0 | 22.0 | 0.00 | 0.00 | 0.00 | 30 | 1007.5 |
| 20260505113259 | 79 | 231 | 17.0 | 22.0 | 0.00 | 0.00 | 0.00 | 28 | 1007.5 |
| 20260505113233 | 79 | 187 | 10.0 | 16.0 | 0.00 | 0.00 | 0.00 | 28 | 1007.5 |
| 20260505113157 | 79 | 213 | 3.0 | 16.0 | 0.00 | 0.00 | 0.00 | 29 | 1007.5 |
| 20260505113127 | 79 | 252 | 9.0 | 16.0 | 0.00 | 0.00 | 0.00 | 28 | 1007.4 |
| 20260505113111 | 80 | 303 | 6.0 | 19.0 | 0.00 | 0.00 | 0.00 | 28 | 1007.5 |
| 20260505112751 | 80 | 255 | 5.0 | 19.0 | 0.00 | 0.00 | 0.00 | 29 | 1007.5 |
| 20260505112737 | 80 | 276 | 3.0 | 19.0 | 0.00 | 0.00 | 0.00 | 29 | 1007.5 |
| 20260505112652 | 79 | 220 | 4.0 | 19.0 | 0.00 | 0.00 | 0.00 | 31 | 1007.3 |
| 20260505112552 | 79 | 241 | 4.0 | 19.0 | 0.00 | 0.00 | 0.00 | 31 | 1007.1 |
| 20260505112530 | 79 | 164 | 0.0 | 19.0 | 0.00 | 0.00 | 0.00 | 31 | 1007.5 |
| 20260505112514 | 79 | 165 | 0.0 | 19.0 | 0.00 | 0.00 | 0.00 | 31 | 1007.6 |
| 20260505112245 | 79 | 190 | 2.0 | 18.0 | 0.00 | 0.00 | 0.00 | 31 | 1007.7 |
| 20260505112238 | 78 | 199 | 0.0 | 19.0 | 0.00 | 0.00 | 0.00 | 32 | 1007.5 |
| 20260505112225 | 78 | 196 | 0.0 | 19.0 | 0.00 | 0.00 | 0.00 | 32 | 1007.3 |
| 20260505112209 | 78 | 200 | 5.0 | 19.0 | 0.00 | 0.00 | 0.00 | 31 | 1007.6 |
| 20260505112154 | 78 | 197 | 1.0 | 18.0 | 0.00 | 0.00 | 0.00 | 32 | 1007.6 |
| 20260505112137 | 78 | 184 | 11.0 | 18.0 | 0.00 | 0.00 | 0.00 | 31 | 1007.4 |
| 20260505112121 | 79 | 227 | 6.0 | 18.0 | 0.00 | 0.00 | 0.00 | 31 | 1007.7 |
| 20260505112109 | 79 | 219 | 10.0 | 18.0 | 0.00 | 0.00 | 0.00 | 31 | 1007.7 |
| 20260505112059 | 79 | 174 | 8.0 | 18.0 | 0.00 | 0.00 | 0.00 | 31 | 1007.6 |
| 20260505112044 | 79 | 241 | 3.0 | 18.0 | 0.00 | 0.00 | 0.00 | 31 | 1007.5 |
| 20260505112028 | 79 | 213 | 2.0 | 18.0 | 0.00 | 0.00 | 0.00 | 30 | 1007.5 |
| 20260505111753 | 79 | 190 | 2.0 | 18.0 | 0.00 | 0.00 | 0.00 | 30 | 1007.7 |
| 20260505111303 | 78 | 233 | 6.0 | 17.0 | 0.00 | 0.00 | 0.00 | 31 | 1007.7 |
| 20260505111248 | 78 | 219 | 5.0 | 21.0 | 0.00 | 0.00 | 0.00 | 31 | 1007.3 |
| 20260505111232 | 78 | 185 | 2.0 | 21.0 | 0.00 | 0.00 | 0.00 | 31 | 1007.5 |
| 20260505111000 | 78 | 193 | 3.0 | 21.0 | 0.00 | 0.00 | 0.00 | 30 | 1007.7 |
| 20260505110729 | 78 | 198 | 6.0 | 21.0 | 0.00 | 0.00 | 0.00 | 31 | 1007.6 |
| 20260505110713 | 78 | 171 | 10.0 | 21.0 | 0.00 | 0.00 | 0.00 | 30 | 1007.5 |
| 20260505110659 | 78 | 187 | 4.0 | 21.0 | 0.00 | 0.00 | 0.00 | 31 | 1007.5 |
| 20260505110426 | 78 | 199 | 4.0 | 21.0 | 0.00 | 0.00 | 0.00 | 30 | 1007.9 |
| 20260505110154 | 78 | 218 | 6.0 | 18.0 | 0.00 | 0.00 | 0.00 | 30 | 1007.6 |
| 20260505102052 | 77 | 239 | 4.0 | 22.0 | 0.00 | 0.00 | 0.00 | 32 | 1008.0 |
| 20260505102029 | 77 | 25 | 10.0 | 22.0 | 0.00 | 0.00 | 0.00 | 32 | 1007.9 |
| 20260505101531 | 77 | 205 | 8.0 | 27.0 | 0.00 | 0.00 | 0.00 | 32 | 1008.0 |
| 20260505101515 | 77 | 156 | 0.0 | 27.0 | 0.00 | 0.00 | 0.00 | 32 | 1007.9 |
| 20260505101247 | 76 | 239 | 7.0 | 27.0 | 0.00 | 0.00 | 0.00 | 31 | 1008.3 |
| 20260505100928 | 76 | 158 | 2.0 | 27.0 | 0.00 | 0.00 | 0.00 | 31 | 1008.1 |
| 20260505100824 | 76 | 193 | 2.0 | 27.0 | 0.00 | 0.00 | 0.00 | 31 | 1008.3 |
| 20260505100724 | 76 | 329 | 4.0 | 27.0 | 0.00 | 0.00 | 0.00 | 31 | 1008.3 |
| 20260505100705 | 76 | 270 | 5.0 | 27.0 | 0.00 | 0.00 | 0.00 | 31 | 1008.1 |
| 20260505100658 | 76 | 187 | 3.0 | 27.0 | 0.00 | 0.00 | 0.00 | 31 | 1008.1 |
| 20260505100643 | 76 | 207 | 5.0 | 27.0 | 0.00 | 0.00 | 0.00 | 31 | 1008.3 |
| 20260505100627 | 77 | 212 | 10.0 | 27.0 | 0.00 | 0.00 | 0.00 | 30 | 1008.3 |
| 20260505100351 | 76 | 219 | 6.0 | 27.0 | 0.00 | 0.00 | 0.00 | 30 | 1008.3 |
| 20260505100335 | 76 | 330 | 5.0 | 27.0 | 0.00 | 0.00 | 0.00 | 31 | 1007.9 |
| 20260505100022 | 76 | 210 | 9.0 | 27.0 | 0.00 | 0.00 | 0.00 | 30 | 1008.2 |
| 20260505095957 | 76 | 80 | 4.0 | 27.0 | 0.00 | 0.00 | 0.00 | 30 | 1007.9 |
| 20260505095941 | 76 | 106 | 6.0 | 22.0 | 0.00 | 0.00 | 0.00 | 31 | 1008.1 |
| 20260505095703 | 77 | 182 | 9.0 | 22.0 | 0.00 | 0.00 | 0.00 | 31 | 1008.0 |
| 20260505095656 | 77 | 359 | 3.0 | 22.0 | 0.00 | 0.00 | 0.00 | 30 | 1008.0 |
| 20260505095641 | 77 | 227 | 10.0 | 22.0 | 0.00 | 0.00 | 0.00 | 30 | 1008.0 |
| 20260505095318 | 78 | 195 | 9.0 | 14.0 | 0.00 | 0.00 | 0.00 | 31 | 1008.2 |
| 20260505095216 | 78 | 260 | 6.0 | 14.0 | 0.00 | 0.00 | 0.00 | 30 | 1008.2 |
| 20260505095125 | 78 | 208 | 6.0 | 14.0 | 0.00 | 0.00 | 0.00 | 32 | 1008.2 |
| 20260505095117 | 78 | 211 | 7.0 | 14.0 | 0.00 | 0.00 | 0.00 | 32 | 1008.2 |
| 20260505095018 | 78 | 190 | 2.0 | 14.0 | 0.00 | 0.00 | 0.00 | 32 | 1008.3 |
| 20260505094958 | 77 | 209 | 4.0 | 14.0 | 0.00 | 0.00 | 0.00 | 31 | 1008.1 |
| 20260505094943 | 77 | 160 | 1.0 | 19.0 | 0.00 | 0.00 | 0.00 | 33 | 1008.2 |
| 20260505094706 | 78 | 196 | 3.0 | 19.0 | 0.00 | 0.00 | 0.00 | 31 | 1007.9 |
| 20260505094659 | 78 | 196 | 3.0 | 19.0 | 0.00 | 0.00 | 0.00 | 32 | 1007.9 |
| 20260505094643 | 78 | 207 | 6.0 | 19.0 | 0.00 | 0.00 | 0.00 | 32 | 1008.3 |
| 20260505094624 | 78 | 195 | 4.0 | 19.0 | 0.00 | 0.00 | 0.00 | 32 | 1008.4 |
| 20260505094347 | 78 | 216 | 2.0 | 19.0 | 0.00 | 0.00 | 0.00 | 31 | 1008.2 |
| 20260505094328 | 78 | 221 | 6.0 | 19.0 | 0.00 | 0.00 | 0.00 | 31 | 1008.3 |
| 20260505094017 | 78 | 91 | 6.0 | 19.0 | 0.00 | 0.00 | 0.00 | 31 | 1008.2 |
| 20260505093915 | 78 | 193 | 7.0 | 19.0 | 0.00 | 0.00 | 0.00 | 31 | 1008.0 |
| 20260505093804 | 78 | 220 | 7.0 | 17.0 | 0.00 | 0.00 | 0.00 | 31 | 1008.1 |
| 20260505093745 | 78 | 188 | 9.0 | 17.0 | 0.00 | 0.00 | 0.00 | 32 | 1008.3 |
| 20260505093729 | 78 | 199 | 2.0 | 17.0 | 0.00 | 0.00 | 0.00 | 32 | 1008.2 |
| 20260505093721 | 78 | 165 | 11.0 | 17.0 | 0.00 | 0.00 | 0.00 | 32 | 1008.2 |
| 20260505093357 | 77 | 274 | 3.0 | 22.0 | 0.00 | 0.00 | 0.00 | 33 | 1008.3 |
| 20260505093258 | 77 | 230 | 4.0 | 22.0 | 0.00 | 0.00 | 0.00 | 35 | 1008.3 |
| 20260505093212 | 76 | 43 | 2.0 | 22.0 | 0.00 | 0.00 | 0.00 | 35 | 1008.3 |
| 20260505093157 | 76 | 200 | 0.0 | 22.0 | 0.00 | 0.00 | 0.00 | 35 | 1008.1 |
| 20260505093147 | 76 | 165 | 0.0 | 22.0 | 0.00 | 0.00 | 0.00 | 35 | 1008.1 |
| 20260505093131 | 76 | 211 | 4.0 | 22.0 | 0.00 | 0.00 | 0.00 | 33 | 1008.0 |
| 20260505093115 | 76 | 203 | 6.0 | 22.0 | 0.00 | 0.00 | 0.00 | 33 | 1008.3 |
| 20260505092837 | 77 | 279 | 8.0 | 22.0 | 0.00 | 0.00 | 0.00 | 33 | 1008.2 |
| 20260505092822 | 77 | 213 | 9.0 | 23.0 | 0.00 | 0.00 | 0.00 | 33 | 1008.2 |
| 20260505092554 | 76 | 199 | 5.0 | 24.0 | 0.00 | 0.00 | 0.00 | 33 | 1008.3 |
| 20260505092234 | 76 | 223 | 2.0 | 24.0 | 0.00 | 0.00 | 0.00 | 35 | 1008.3 |
| 20260505092133 | 76 | 178 | 6.0 | 24.0 | 0.00 | 0.00 | 0.00 | 33 | 1008.2 |
| 20260505092101 | 76 | 227 | 13.0 | 24.0 | 0.00 | 0.00 | 0.00 | 35 | 1008.2 |
| 20260505092029 | 76 | 199 | 2.0 | 24.0 | 0.00 | 0.00 | 0.00 | 33 | 1008.5 |
| 20260505092003 | 76 | 165 | 5.0 | 24.0 | 0.00 | 0.00 | 0.00 | 33 | 1008.3 |
| 20260505091947 | 76 | 222 | 5.0 | 24.0 | 0.00 | 0.00 | 0.00 | 35 | 1008.3 |
| 20260505091703 | 76 | 227 | 8.0 | 24.0 | 0.00 | 0.00 | 0.00 | 32 | 1008.4 |
| 20260505091650 | 76 | 199 | 9.0 | 24.0 | 0.00 | 0.00 | 0.00 | 32 | 1008.4 |
| 20260505091641 | 76 | 217 | 10.0 | 22.0 | 0.00 | 0.00 | 0.00 | 33 | 1008.6 |
| 20260505091321 | 76 | 140 | 1.0 | 22.0 | 0.00 | 0.00 | 0.00 | 35 | 1008.3 |
| 20260505091220 | 76 | 233 | 9.0 | 22.0 | 0.00 | 0.00 | 0.00 | 35 | 1008.2 |
| 20260505091149 | 76 | 58 | 10.0 | 23.0 | 0.00 | 0.00 | 0.00 | 35 | 1008.3 |
| 20260505091131 | 76 | 148 | 11.0 | 23.0 | 0.00 | 0.00 | 0.00 | 36 | 1008.3 |
| 20260505091122 | 76 | 196 | 12.0 | 23.0 | 0.00 | 0.00 | 0.00 | 35 | 1008.3 |
| 20260505091107 | 76 | 54 | 2.0 | 35.0 | 0.00 | 0.00 | 0.00 | 36 | 1008.4 |
| 20260505091050 | 77 | 158 | 2.0 | 35.0 | 0.00 | 0.00 | 0.00 | 35 | 1008.4 |
| 20260505091035 | 77 | 135 | 6.0 | 35.0 | 0.00 | 0.00 | 0.00 | 35 | 1008.5 |
| 20260505090801 | 76 | 174 | 4.0 | 35.0 | 0.00 | 0.00 | 0.00 | 35 | 1008.4 |
| 20260505090417 | 76 | 187 | 4.0 | 35.0 | 0.00 | 0.00 | 0.00 | 35 | 1008.6 |
| 20260505090402 | 77 | 160 | 6.0 | 35.0 | 0.00 | 0.00 | 0.00 | 35 | 1008.4 |
| 20260505090353 | 76 | 212 | 11.0 | 35.0 | 0.00 | 0.00 | 0.00 | 33 | 1008.6 |
| 20260505090335 | 77 | 211 | 15.0 | 35.0 | 0.00 | 0.00 | 0.00 | 33 | 1008.4 |
| 20260505090319 | 77 | 199 | 12.0 | 35.0 | 0.00 | 0.00 | 0.00 | 35 | 1008.4 |
| 20260505090016 | 77 | 215 | 12.0 | 19.0 | 0.00 | 0.00 | 0.00 | 35 | 1008.5 |
| 20260505085932 | 76 | 228 | 4.0 | 16.0 | 0.00 | 0.00 | 0.00 | 38 | 1008.5 |
| 20260505085915 | 76 | 101 | 7.0 | 16.0 | 0.00 | 0.00 | 0.00 | 37 | 1008.5 |
| 20260505085553 | 76 | 209 | 3.0 | 15.0 | 0.00 | 0.00 | 0.00 | 38 | 1008.5 |
| 20260505085443 | 76 | 217 | 4.0 | 15.0 | 0.00 | 0.00 | 0.00 | 38 | 1008.4 |
| 20260505085342 | 76 | 214 | 5.0 | 15.0 | 0.00 | 0.00 | 0.00 | 39 | 1008.7 |
| 20260505085241 | 76 | 135 | 2.0 | 15.0 | 0.00 | 0.00 | 0.00 | 39 | 1008.5 |
| 20260505085143 | 76 | 146 | 5.0 | 15.0 | 0.00 | 0.00 | 0.00 | 39 | 1008.4 |
| 20260505085041 | 76 | 226 | 11.0 | 15.0 | 0.00 | 0.00 | 0.00 | 38 | 1008.5 |
| 20260505084725 | 75 | 222 | 9.0 | 26.0 | 0.00 | 0.00 | 0.00 | 38 | 1008.7 |
| 20260505084708 | 75 | 225 | 5.0 | 26.0 | 0.00 | 0.00 | 0.00 | 39 | 1008.6 |
| 20260505084651 | 75 | 297 | 7.0 | 26.0 | 0.00 | 0.00 | 0.00 | 39 | 1008.8 |
| 20260505084644 | 75 | 213 | 15.0 | 26.0 | 0.00 | 0.00 | 0.00 | 39 | 1008.8 |
| 20260505084322 | 75 | 217 | 9.0 | 13.0 | 0.00 | 0.00 | 0.00 | 40 | 1008.7 |
| 20260505084305 | 75 | 157 | 5.0 | 13.0 | 0.00 | 0.00 | 0.00 | 41 | 1008.6 |
| 20260505084256 | 75 | 204 | 5.0 | 13.0 | 0.00 | 0.00 | 0.00 | 41 | 1008.8 |
| 20260505084240 | 75 | 72 | 4.0 | 13.0 | 0.00 | 0.00 | 0.00 | 41 | 1008.6 |
| 20260505084012 | 75 | 144 | 4.0 | 13.0 | 0.00 | 0.00 | 0.00 | 41 | 1008.6 |
| 20260505083912 | 75 | 190 | 2.0 | 13.0 | 0.00 | 0.00 | 0.00 | 41 | 1008.7 |
| 20260505083811 | 75 | 145 | 2.0 | 14.0 | 0.00 | 0.00 | 0.00 | 43 | 1008.8 |
| 20260505083711 | 74 | 185 | 0.0 | 14.0 | 0.00 | 0.00 | 0.00 | 43 | 1008.7 |
| 20260505083611 | 74 | 205 | 1.0 | 14.0 | 0.00 | 0.00 | 0.00 | 43 | 1008.8 |
| 20260505083520 | 74 | 189 | 6.0 | 14.0 | 0.00 | 0.00 | 0.00 | 43 | 1008.8 |
| 20260505083513 | 74 | 255 | 6.0 | 14.0 | 0.00 | 0.00 | 0.00 | 43 | 1008.8 |
| 20260505083406 | 74 | 146 | 2.0 | 14.0 | 0.00 | 0.00 | 0.00 | 43 | 1008.9 |
| 20260505083300 | 74 | 220 | 2.0 | 14.0 | 0.00 | 0.00 | 0.00 | 42 | 1008.6 |
| 20260505083200 | 74 | 73 | 4.0 | 14.0 | 0.00 | 0.00 | 0.00 | 43 | 1008.8 |
| 20260505083058 | 74 | 188 | 4.0 | 14.0 | 0.00 | 0.00 | 0.00 | 43 | 1008.9 |
| 20260505083018 | 74 | 206 | 5.0 | 14.0 | 0.00 | 0.00 | 0.00 | 43 | 1008.8 |
| 20260505082958 | 74 | 203 | 5.0 | 14.0 | 0.00 | 0.00 | 0.00 | 43 | 1008.8 |
| 20260505082847 | 74 | 217 | 12.0 | 14.0 | 0.00 | 0.00 | 0.00 | 43 | 1009.0 |
| 20260505082741 | 74 | 139 | 3.0 | 14.0 | 0.00 | 0.00 | 0.00 | 43 | 1008.7 |
| 20260505082701 | 74 | 179 | 8.0 | 14.0 | 0.00 | 0.00 | 0.00 | 42 | 1009.0 |
| 20260505082639 | 74 | 26 | 2.0 | 14.0 | 0.00 | 0.00 | 0.00 | 43 | 1008.9 |
| 20260505082317 | 74 | 187 | 2.0 | 14.0 | 0.00 | 0.00 | 0.00 | 43 | 1008.9 |
| 20260505082218 | 74 | 210 | 4.0 | 14.0 | 0.00 | 0.00 | 0.00 | 42 | 1008.9 |
| 20260505082117 | 74 | 213 | 10.0 | 14.0 | 0.00 | 0.00 | 0.00 | 42 | 1008.8 |
| 20260505082017 | 74 | 151 | 2.0 | 14.0 | 0.00 | 0.00 | 0.00 | 42 | 1009.1 |
| 20260505081916 | 73 | 243 | 3.0 | 16.0 | 0.00 | 0.00 | 0.00 | 43 | 1008.9 |
| 20260505081818 | 73 | 221 | 6.0 | 18.0 | 0.00 | 0.00 | 0.00 | 42 | 1009.1 |
| 20260505081717 | 73 | 198 | 5.0 | 18.0 | 0.00 | 0.00 | 0.00 | 43 | 1008.9 |
| 20260505081701 | 73 | 146 | 4.0 | 18.0 | 0.00 | 0.00 | 0.00 | 42 | 1008.7 |
| 20260505081639 | 74 | 191 | 5.0 | 18.0 | 0.00 | 0.00 | 0.00 | 42 | 1009.0 |
| 20260505081317 | 74 | 135 | 1.0 | 18.0 | 0.00 | 0.00 | 0.00 | 43 | 1009.1 |
| 20260505081217 | 74 | 206 | 7.0 | 18.0 | 0.00 | 0.00 | 0.00 | 42 | 1009.3 |
| 20260505081118 | 74 | 206 | 1.0 | 18.0 | 0.00 | 0.00 | 0.00 | 42 | 1009.1 |
| 20260505081052 | 74 | 269 | 7.0 | 18.0 | 0.00 | 0.00 | 0.00 | 41 | 1009.0 |
| 20260505081036 | 74 | 243 | 9.0 | 13.0 | 0.00 | 0.00 | 0.00 | 41 | 1009.1 |
| 20260505081020 | 74 | 193 | 6.0 | 10.0 | 0.00 | 0.00 | 0.00 | 42 | 1009.0 |
| 20260505081004 | 74 | 202 | 3.0 | 10.0 | 0.00 | 0.00 | 0.00 | 42 | 1009.2 |
| 20260505080948 | 74 | 186 | 2.0 | 10.0 | 0.00 | 0.00 | 0.00 | 42 | 1009.1 |
| 20260505080930 | 74 | 198 | 5.0 | 10.0 | 0.00 | 0.00 | 0.00 | 42 | 1009.0 |
| 20260505080704 | 74 | 208 | 3.0 | 10.0 | 0.00 | 0.00 | 0.00 | 42 | 1009.2 |
| 20260505080647 | 74 | 200 | 3.0 | 8.0 | 0.00 | 0.00 | 0.00 | 41 | 1009.2 |
| 20260505080630 | 74 | 203 | 2.0 | 8.0 | 0.00 | 0.00 | 0.00 | 42 | 1009.1 |
| 20260505080354 | 75 | 91 | 1.0 | 8.0 | 0.00 | 0.00 | 0.00 | 41 | 1009.1 |
| 20260505080128 | 75 | 56 | 1.0 | 8.0 | 0.00 | 0.00 | 0.00 | 42 | 1009.1 |
| 20260505075547 | 74 | 180 | 0.0 | 8.0 | 0.00 | 0.00 | 0.00 | 41 | 1009.3 |
| 20260505075453 | 74 | 86 | 2.0 | 8.0 | 0.00 | 0.00 | 0.00 | 41 | 1009.3 |
| 20260505075446 | 74 | 96 | 4.0 | 8.0 | 0.00 | 0.00 | 0.00 | 41 | 1009.3 |
| 20260505075425 | 74 | 203 | 3.0 | 16.0 | 0.00 | 0.00 | 0.00 | 42 | 1009.4 |
| 20260505075415 | 74 | 137 | 2.0 | 9.0 | 0.00 | 0.00 | 0.00 | 41 | 1009.4 |
| 20260505075358 | 74 | 90 | 1.0 | 15.0 | 0.00 | 0.00 | 0.00 | 41 | 1009.3 |
| 20260505075342 | 74 | 66 | 1.0 | 15.0 | 0.00 | 0.00 | 0.00 | 41 | 1009.0 |
| 20260505075324 | 74 | 191 | 1.0 | 16.0 | 0.00 | 0.00 | 0.00 | 41 | 1009.5 |
| 20260505075056 | 74 | 203 | 3.0 | 16.0 | 0.00 | 0.00 | 0.00 | 43 | 1009.4 |
| 20260505075039 | 73 | 212 | 0.0 | 16.0 | 0.00 | 0.00 | 0.00 | 44 | 1009.2 |
| 20260505075024 | 73 | 141 | 0.0 | 16.0 | 0.00 | 0.00 | 0.00 | 42 | 1009.5 |
| 20260505074448 | 73 | 231 | 5.0 | 16.0 | 0.00 | 0.00 | 0.00 | 42 | 1009.5 |
| 20260505074442 | 73 | 229 | 6.0 | 16.0 | 0.00 | 0.00 | 0.00 | 42 | 1009.5 |
| 20260505074342 | 73 | 219 | 8.0 | 16.0 | 0.00 | 0.00 | 0.00 | 41 | 1009.4 |
| 20260505074246 | 72 | 48 | 5.0 | 13.0 | 0.00 | 0.00 | 0.00 | 42 | 1009.5 |
| 20260505074240 | 73 | 264 | 6.0 | 16.0 | 0.00 | 0.00 | 0.00 | 41 | 1009.5 |
| 20260505074224 | 73 | 203 | 8.0 | 16.0 | 0.00 | 0.00 | 0.00 | 41 | 1009.4 |
| 20260505074208 | 72 | 182 | 2.0 | 13.0 | 0.00 | 0.00 | 0.00 | 41 | 1009.5 |
| 20260505073939 | 72 | 242 | 5.0 | 13.0 | 0.00 | 0.00 | 0.00 | 42 | 1009.5 |
| 20260505073840 | 72 | 131 | 1.0 | 13.0 | 0.00 | 0.00 | 0.00 | 43 | 1009.4 |
| 20260505073739 | 72 | 172 | 4.0 | 13.0 | 0.00 | 0.00 | 0.00 | 42 | 1009.5 |
| 20260505073639 | 72 | 59 | 2.0 | 13.0 | 0.00 | 0.00 | 0.00 | 42 | 1009.3 |
| 20260505073540 | 72 | 203 | 1.0 | 13.0 | 0.00 | 0.00 | 0.00 | 42 | 1009.3 |
| 20260505073447 | 72 | 179 | 3.0 | 13.0 | 0.00 | 0.00 | 0.00 | 42 | 1009.4 |
| 20260505073440 | 72 | 175 | 1.0 | 13.0 | 0.00 | 0.00 | 0.00 | 42 | 1009.4 |
| 20260505073343 | 72 | 102 | 0.0 | 13.0 | 0.00 | 0.00 | 0.00 | 42 | 1009.5 |
| 20260505073318 | 72 | 232 | 5.0 | 13.0 | 0.00 | 0.00 | 0.00 | 42 | 1009.3 |
| 20260505073300 | 72 | 182 | 0.0 | 13.0 | 0.00 | 0.00 | 0.00 | 42 | 1009.4 |
| 20260505073239 | 73 | 201 | 4.0 | 13.0 | 0.00 | 0.00 | 0.00 | 42 | 1009.6 |
| 20260505073222 | 73 | 198 | 6.0 | 11.0 | 0.00 | 0.00 | 0.00 | 41 | 1009.6 |
| 20260505073215 | 73 | 232 | 4.0 | 11.0 | 0.00 | 0.00 | 0.00 | 41 | 1009.4 |
| 20260505072636 | 73 | 259 | 2.0 | 11.0 | 0.00 | 0.00 | 0.00 | 42 | 1009.6 |
| 20260505072544 | 73 | 195 | 6.0 | 11.0 | 0.00 | 0.00 | 0.00 | 42 | 1009.7 |
| 20260505072526 | 72 | 183 | 5.0 | 10.0 | 0.00 | 0.00 | 0.00 | 41 | 1009.5 |
| 20260505072517 | 72 | 206 | 7.0 | 11.0 | 0.00 | 0.00 | 0.00 | 42 | 1009.7 |
| 20260505072511 | 72 | 205 | 3.0 | 11.0 | 0.00 | 0.00 | 0.00 | 42 | 1009.4 |
| 20260505072453 | 71 | 136 | 1.0 | 11.0 | 0.00 | 0.00 | 0.00 | 43 | 1009.6 |
| 20260505072220 | 71 | 209 | 5.0 | 11.0 | 0.00 | 0.00 | 0.00 | 42 | 1009.5 |
| 20260505072204 | 72 | 184 | 6.0 | 11.0 | 0.00 | 0.00 | 0.00 | 42 | 1009.5 |
| 20260505071935 | 72 | 185 | 2.0 | 10.0 | 0.00 | 0.00 | 0.00 | 41 | 1009.7 |
| 20260505071835 | 72 | 134 | 2.0 | 11.0 | 0.00 | 0.00 | 0.00 | 41 | 1009.7 |
| 20260505071808 | 72 | 212 | 8.0 | 11.0 | 0.00 | 0.00 | 0.00 | 42 | 1009.7 |
| 20260505071800 | 72 | 202 | 2.0 | 11.0 | 0.00 | 0.00 | 0.00 | 41 | 1009.8 |
| 20260505071745 | 72 | 206 | 3.0 | 11.0 | 0.00 | 0.00 | 0.00 | 42 | 1009.5 |
| 20260505071729 | 72 | 185 | 4.0 | 11.0 | 0.00 | 0.00 | 0.00 | 41 | 1009.4 |
| 20260505071707 | 72 | 192 | 5.0 | 11.0 | 0.00 | 0.00 | 0.00 | 42 | 1009.4 |
| 20260505071428 | 72 | 200 | 1.0 | 11.0 | 0.00 | 0.00 | 0.00 | 42 | 1009.6 |
| 20260505071412 | 72 | 198 | 6.0 | 11.0 | 0.00 | 0.00 | 0.00 | 42 | 1009.7 |
| 20260505070828 | 72 | 185 | 0.0 | 10.0 | 0.00 | 0.00 | 0.00 | 41 | 1009.7 |
| 20260505070729 | 72 | 53 | 2.0 | 10.0 | 0.00 | 0.00 | 0.00 | 42 | 1009.6 |
| 20260505070711 | 72 | 90 | 2.0 | 10.0 | 0.00 | 0.00 | 0.00 | 43 | 1009.7 |
| 20260505070656 | 72 | 89 | 2.0 | 10.0 | 0.00 | 0.00 | 0.00 | 42 | 1009.6 |
| 20260505070639 | 72 | 237 | 6.0 | 10.0 | 0.00 | 0.00 | 0.00 | 42 | 1009.6 |
| 20260505070333 | 72 | 194 | 4.0 | 9.0 | 0.00 | 0.00 | 0.00 | 42 | 1009.7 |
| 20260505070328 | 72 | 134 | 0.0 | 9.0 | 0.00 | 0.00 | 0.00 | 44 | 1010.0 |
| 20260505070316 | 71 | 181 | 0.0 | 10.0 | 0.00 | 0.00 | 0.00 | 43 | 1009.7 |
| 20260505070312 | 71 | 248 | 1.0 | 10.0 | 0.00 | 0.00 | 0.00 | 44 | 1009.8 |
| 20260505070306 | 71 | 168 | 0.0 | 4.0 | 0.00 | 0.00 | 0.00 | 42 | 1009.9 |
| 20260505070258 | 71 | 185 | 1.0 | 9.0 | 0.00 | 0.00 | 0.00 | 43 | 1009.5 |
| 20260505070242 | 71 | 174 | 0.0 | 9.0 | 0.00 | 0.00 | 0.00 | 43 | 1009.7 |
| 20260505070225 | 71 | 239 | 4.0 | 9.0 | 0.00 | 0.00 | 0.00 | 43 | 1009.9 |
| 20260505065959 | 72 | 194 | 4.0 | 9.0 | 0.00 | 0.00 | 0.00 | 42 | 1009.7 |
| 20260505065943 | 72 | 204 | 2.0 | 6.0 | 0.00 | 0.00 | 0.00 | 42 | 1009.7 |
| 20260505065928 | 72 | 198 | 2.0 | 9.0 | 0.00 | 0.00 | 0.00 | 43 | 1010.0 |
| 20260505065911 | 72 | 187 | 3.0 | 9.0 | 0.00 | 0.00 | 0.00 | 43 | 1009.8 |
| 20260505065855 | 72 | 172 | 1.0 | 9.0 | 0.00 | 0.00 | 0.00 | 42 | 1009.9 |
| 20260505065833 | 72 | 210 | 3.0 | 9.0 | 0.00 | 0.00 | 0.00 | 42 | 1009.8 |
| 20260505065816 | 72 | 210 | 1.0 | 9.0 | 0.00 | 0.00 | 0.00 | 43 | 1009.8 |
| 20260505065800 | 72 | 63 | 0.0 | 9.0 | 0.00 | 0.00 | 0.00 | 45 | 1009.7 |
| 20260505065743 | 71 | 224 | 1.0 | 9.0 | 0.00 | 0.00 | 0.00 | 43 | 1010.0 |
| 20260505065251 | 71 | 130 | 0.0 | 10.0 | 0.00 | 0.00 | 0.00 | 43 | 1009.7 |
| 20260505065235 | 71 | 199 | 6.0 | 10.0 | 0.00 | 0.00 | 0.00 | 43 | 1009.9 |
| 20260505065219 | 71 | 153 | 0.0 | 10.0 | 0.00 | 0.00 | 0.00 | 43 | 1009.8 |
| 20260505065203 | 71 | 57 | 1.0 | 10.0 | 0.00 | 0.00 | 0.00 | 42 | 1009.6 |
| 20260505064451 | 71 | 174 | 2.0 | 10.0 | 0.00 | 0.00 | 0.00 | 43 | 1009.6 |
| 20260505064436 | 70 | 195 | 2.0 | 10.0 | 0.00 | 0.00 | 0.00 | 43 | 1009.9 |
| 20260505064420 | 70 | 171 | 1.0 | 10.0 | 0.00 | 0.00 | 0.00 | 43 | 1009.9 |
| 20260505064405 | 71 | 214 | 8.0 | 10.0 | 0.00 | 0.00 | 0.00 | 44 | 1009.8 |
| 20260505064350 | 71 | 193 | 5.0 | 7.0 | 0.00 | 0.00 | 0.00 | 44 | 1010.0 |
| 20260505064123 | 71 | 88 | 2.0 | 7.0 | 0.00 | 0.00 | 0.00 | 44 | 1009.8 |
| 20260505063846 | 71 | 139 | 2.0 | 7.0 | 0.00 | 0.00 | 0.00 | 43 | 1009.9 |
| 20260505063830 | 71 | 187 | 4.0 | 7.0 | 0.00 | 0.00 | 0.00 | 43 | 1009.8 |
| 20260505063300 | 71 | 78 | 0.0 | 7.0 | 0.00 | 0.00 | 0.00 | 44 | 1009.8 |
| 20260505063157 | 71 | 164 | 0.0 | 7.0 | 0.00 | 0.00 | 0.00 | 43 | 1009.9 |
| 20260505063058 | 71 | 64 | 1.0 | 7.0 | 0.00 | 0.00 | 0.00 | 43 | 1009.8 |
| 20260505062958 | 71 | 177 | 0.0 | 7.0 | 0.00 | 0.00 | 0.00 | 44 | 1009.8 |
| 20260505062918 | 71 | 185 | 0.0 | 7.0 | 0.00 | 0.00 | 0.00 | 45 | 1009.8 |
| 20260505062857 | 71 | 183 | 0.0 | 7.0 | 0.00 | 0.00 | 0.00 | 44 | 1009.8 |
| 20260505062757 | 70 | 183 | 0.0 | 7.0 | 0.00 | 0.00 | 0.00 | 45 | 1009.9 |
| 20260505062725 | 69 | 194 | 0.0 | 7.0 | 0.00 | 0.00 | 0.00 | 45 | 1009.8 |
| 20260505062712 | 69 | 157 | 0.0 | 7.0 | 0.00 | 0.00 | 0.00 | 45 | 1009.7 |
| 20260505062437 | 69 | 223 | 4.0 | 7.0 | 0.00 | 0.00 | 0.00 | 46 | 1009.8 |
| 20260505062430 | 69 | 210 | 5.0 | 7.0 | 0.00 | 0.00 | 0.00 | 45 | 1009.8 |
| 20260505062411 | 69 | 173 | 3.0 | 7.0 | 0.00 | 0.00 | 0.00 | 44 | 1010.1 |
| 20260505062052 | 69 | 95 | 1.0 | 7.0 | 0.00 | 0.00 | 0.00 | 45 | 1009.9 |
| 20260505061951 | 69 | 160 | 1.0 | 7.0 | 0.00 | 0.00 | 0.00 | 44 | 1010.0 |
| 20260505061911 | 69 | 72 | 0.0 | 7.0 | 0.00 | 0.00 | 0.00 | 45 | 1009.8 |
| 20260505061851 | 69 | 176 | 2.0 | 7.0 | 0.00 | 0.00 | 0.00 | 44 | 1009.8 |
| 20260505061753 | 69 | 199 | 3.0 | 7.0 | 0.00 | 0.00 | 0.00 | 45 | 1010.2 |
| 20260505061728 | 69 | 91 | 0.0 | 9.0 | 0.00 | 0.00 | 0.00 | 48 | 1009.9 |
| 20260505061711 | 69 | 198 | 2.0 | 9.0 | 0.00 | 0.00 | 0.00 | 45 | 1010.1 |
| 20260505061407 | 69 | 177 | 1.0 | 9.0 | 0.00 | 0.00 | 0.00 | 45 | 1009.9 |
| 20260505061347 | 68 | 177 | 1.0 | 9.0 | 0.00 | 0.00 | 0.00 | 45 | 1009.9 |
| 20260505061322 | 68 | 112 | 1.0 | 9.0 | 0.00 | 0.00 | 0.00 | 45 | 1010.0 |
| 20260505061306 | 68 | 181 | 2.0 | 9.0 | 0.00 | 0.00 | 0.00 | 45 | 1010.1 |
| 20260505060946 | 68 | 212 | 2.0 | 9.0 | 0.00 | 0.00 | 0.00 | 45 | 1010.1 |
| 20260505060906 | 68 | 91 | 0.0 | 9.0 | 0.00 | 0.00 | 0.00 | 45 | 1010.1 |
| 20260505060846 | 68 | 157 | 1.0 | 9.0 | 0.00 | 0.00 | 0.00 | 46 | 1010.1 |
| 20260505060758 | 68 | 239 | 7.0 | 9.0 | 0.00 | 0.00 | 0.00 | 45 | 1010.2 |
| 20260505060743 | 68 | 168 | 0.0 | 9.0 | 0.00 | 0.00 | 0.00 | 47 | 1010.0 |
| 20260505060728 | 68 | 185 | 1.0 | 9.0 | 0.00 | 0.00 | 0.00 | 46 | 1010.0 |
| 20260505060713 | 68 | 194 | 2.0 | 9.0 | 0.00 | 0.00 | 0.00 | 46 | 1009.9 |
| 20260505060657 | 68 | 60 | 1.0 | 9.0 | 0.00 | 0.00 | 0.00 | 46 | 1009.9 |
| 20260505060429 | 68 | 157 | 0.0 | 9.0 | 0.00 | 0.00 | 0.00 | 49 | 1009.9 |
| 20260505055855 | 68 | 198 | 3.0 | 4.0 | 0.00 | 0.00 | 0.00 | 45 | 1009.9 |
| 20260505055848 | 68 | 203 | 1.0 | 4.0 | 0.00 | 0.00 | 0.00 | 46 | 1009.9 |
| 20260505055745 | 68 | 170 | 1.0 | 4.0 | 0.00 | 0.00 | 0.00 | 46 | 1010.1 |
| 20260505055657 | 67 | 175 | 0.0 | 4.0 | 0.00 | 0.00 | 0.00 | 47 | 1010.1 |
| 20260505055641 | 67 | 121 | 0.0 | 6.0 | 0.00 | 0.00 | 0.00 | 49 | 1009.9 |
| 20260505055627 | 67 | 195 | 0.0 | 6.0 | 0.00 | 0.00 | 0.00 | 47 | 1010.0 |
| 20260505055612 | 67 | 200 | 3.0 | 6.0 | 0.00 | 0.00 | 0.00 | 47 | 1010.0 |
| 20260505055602 | 67 | 182 | 0.0 | 6.0 | 0.00 | 0.00 | 0.00 | 46 | 1010.4 |
| 20260505055545 | 67 | 192 | 3.0 | 6.0 | 0.00 | 0.00 | 0.00 | 46 | 1010.1 |
| 20260505055529 | 67 | 178 | 2.0 | 6.0 | 0.00 | 0.00 | 0.00 | 47 | 1010.1 |
| 20260505055035 | 66 | 200 | 0.0 | 6.0 | 0.00 | 0.00 | 0.00 | 48 | 1010.1 |
| 20260505054752 | 66 | 93 | 0.0 | 6.0 | 0.00 | 0.00 | 0.00 | 49 | 1009.9 |
| 20260505054736 | 66 | 174 | 0.0 | 6.0 | 0.00 | 0.00 | 0.00 | 49 | 1010.1 |
| 20260505054418 | 67 | 140 | 1.0 | 4.0 | 0.00 | 0.00 | 0.00 | 48 | 1010.1 |
| 20260505054403 | 67 | 136 | 1.0 | 4.0 | 0.00 | 0.00 | 0.00 | 49 | 1010.1 |
| 20260505054317 | 67 | 169 | 1.0 | 4.0 | 0.00 | 0.00 | 0.00 | 48 | 1009.9 |
| 20260505054217 | 66 | 173 | 0.0 | 4.0 | 0.00 | 0.00 | 0.00 | 49 | 1010.0 |
| 20260505054151 | 66 | 57 | 2.0 | 3.0 | 0.00 | 0.00 | 0.00 | 50 | 1010.1 |
| 20260505054145 | 64 | 87 | 0.0 | 1.0 | 0.00 | 0.00 | 0.00 | 56 | 1009.9 |
| 20260505054139 | 62 | 141 | 0.0 | 2.0 | 0.00 | 0.00 | 0.00 | 57 | 1010.4 |
| 20260505054133 | 66 | 179 | 0.0 | 4.0 | 0.00 | 0.00 | 0.00 | 48 | 1010.1 |
| 20260505054116 | 66 | 160 | 0.0 | 3.0 | 0.00 | 0.00 | 0.00 | 51 | 1010.2 |
| 20260505054100 | 66 | 204 | 0.0 | 3.0 | 0.00 | 0.00 | 0.00 | 51 | 1010.2 |
| 20260505054048 | 66 | 155 | 0.0 | 3.0 | 0.00 | 0.00 | 0.00 | 51 | 1010.2 |
| 20260505054038 | 66 | 167 | 0.0 | 3.0 | 0.00 | 0.00 | 0.00 | 50 | 1010.1 |
| 20260505054022 | 65 | 171 | 1.0 | 3.0 | 0.00 | 0.00 | 0.00 | 50 | 1010.1 |
| 20260505053747 | 66 | 189 | 1.0 | 3.0 | 0.00 | 0.00 | 0.00 | 49 | 1009.9 |
| 20260505053731 | 66 | 172 | 1.0 | 3.0 | 0.00 | 0.00 | 0.00 | 50 | 1010.1 |
| 20260505053449 | 66 | 173 | 0.0 | 2.0 | 0.00 | 0.00 | 0.00 | 50 | 1010.5 |
| 20260505053434 | 65 | 182 | 0.0 | 2.0 | 0.00 | 0.00 | 0.00 | 50 | 1009.9 |
| 20260505053158 | 65 | 171 | 0.0 | 2.0 | 0.00 | 0.00 | 0.00 | 51 | 1010.1 |
| 20260505053131 | 64 | 143 | 0.0 | 1.0 | 0.00 | 0.00 | 0.00 | 53 | 1010.2 |
| 20260505053121 | 64 | 167 | 0.0 | 1.0 | 0.00 | 0.00 | 0.00 | 53 | 1010.5 |
| 20260505053105 | 64 | 161 | 0.0 | 1.0 | 0.00 | 0.00 | 0.00 | 54 | 1010.0 |
| 20260505052828 | 64 | 174 | 0.0 | 1.0 | 0.00 | 0.00 | 0.00 | 54 | 1010.1 |
| 20260505052811 | 64 | 129 | 0.0 | 1.0 | 0.00 | 0.00 | 0.00 | 56 | 1009.9 |
| 20260505052542 | 64 | 147 | 0.0 | 1.0 | 0.00 | 0.00 | 0.00 | 55 | 1010.2 |
| 20260505052525 | 64 | 157 | 0.0 | 1.0 | 0.00 | 0.00 | 0.00 | 55 | 1010.2 |
| 20260505052029 | 63 | 146 | 0.0 | 2.0 | 0.00 | 0.00 | 0.00 | 56 | 1010.1 |
| 20260505052017 | 63 | 156 | 0.0 | 2.0 | 0.00 | 0.00 | 0.00 | 56 | 1010.1 |
| 20260505052006 | 63 | 134 | 0.0 | 2.0 | 0.00 | 0.00 | 0.00 | 56 | 1010.4 |
| 20260505051951 | 63 | 156 | 0.0 | 2.0 | 0.00 | 0.00 | 0.00 | 56 | 1010.2 |
| 20260505051715 | 63 | 147 | 0.0 | 2.0 | 0.00 | 0.00 | 0.00 | 56 | 1010.2 |
| 20260505051659 | 63 | 134 | 0.0 | 2.0 | 0.00 | 0.00 | 0.00 | 55 | 1010.1 |
| 20260505051647 | 63 | 153 | 0.0 | 2.0 | 0.00 | 0.00 | 0.00 | 55 | 1010.1 |
| 20260505051414 | 63 | 134 | 0.0 | 2.0 | 0.00 | 0.00 | 0.00 | 55 | 1010.1 |
| 20260505051358 | 63 | 149 | 0.0 | 2.0 | 0.00 | 0.00 | 0.00 | 55 | 1010.1 |
| 20260505051343 | 63 | 137 | 0.0 | 1.0 | 0.00 | 0.00 | 0.00 | 55 | 1010.2 |
| 20260505051111 | 63 | 157 | 0.0 | 2.0 | 0.00 | 0.00 | 0.00 | 55 | 1010.4 |
| 20260505050839 | 62 | 145 | 0.0 | 2.0 | 0.00 | 0.00 | 0.00 | 55 | 1010.2 |
| 20260505050823 | 62 | 141 | 0.0 | 2.0 | 0.00 | 0.00 | 0.00 | 56 | 1010.5 |
| 20260505050548 | 62 | 161 | 0.0 | 2.0 | 0.00 | 0.00 | 0.00 | 57 | 1010.2 |
| 20260505050319 | 62 | 124 | 0.0 | 2.0 | 0.00 | 0.00 | 0.00 | 57 | 1010.4 |
| 20260505050302 | 62 | 176 | 0.0 | 2.0 | 0.00 | 0.00 | 0.00 | 56 | 1010.2 |
| 20260505041658 | 54 | 166 | 0.0 | 1.0 | 0.00 | 0.00 | 0.00 | 70 | 1010.2 |
| 20260505041559 | 54 | 160 | 0.0 | 1.0 | 0.00 | 0.00 | 0.00 | 70 | 1010.7 |
| 20260505041458 | 54 | 172 | 0.0 | 1.0 | 0.00 | 0.00 | 0.00 | 71 | 1010.7 |
| 20260505041358 | 53 | 179 | 0.0 | 1.0 | 0.00 | 0.00 | 0.00 | 71 | 1010.4 |
| 20260505041255 | 53 | 184 | 0.0 | 1.0 | 0.00 | 0.00 | 0.00 | 72 | 1010.5 |
| 20260505041248 | 53 | 182 | 0.0 | 1.0 | 0.00 | 0.00 | 0.00 | 72 | 1010.5 |
| 20260505041221 | 53 | 165 | 0.0 | 1.0 | 0.00 | 0.00 | 0.00 | 72 | 1010.5 |
| 20260505041205 | 53 | 141 | 1.0 | 1.0 | 0.00 | 0.00 | 0.00 | 74 | 1010.5 |
| 20260505040847 | 52 | 169 | 0.0 | 0.0 | 0.00 | 0.00 | 0.00 | 75 | 1010.4 |
| 20260505040753 | 52 | 173 | 0.0 | 1.0 | 0.00 | 0.00 | 0.00 | 75 | 1010.6 |
| 20260505040745 | 52 | 174 | 0.0 | 1.0 | 0.00 | 0.00 | 0.00 | 75 | 1010.6 |
| 20260505040646 | 52 | 173 | 0.0 | 1.0 | 0.00 | 0.00 | 0.00 | 75 | 1010.4 |
| 20260505040533 | 52 | 172 | 0.0 | 1.0 | 0.00 | 0.00 | 0.00 | 75 | 1010.5 |
| 20260505040434 | 53 | 172 | 0.0 | 1.0 | 0.00 | 0.00 | 0.00 | 75 | 1010.5 |
| 20260505040333 | 53 | 181 | 0.0 | 1.0 | 0.00 | 0.00 | 0.00 | 75 | 1010.7 |
| 20260505040319 | 53 | 179 | 0.0 | 1.0 | 0.00 | 0.00 | 0.00 | 75 | 1010.7 |
| 20260505040309 | 54 | 176 | 0.0 | 1.0 | 0.00 | 0.00 | 0.00 | 74 | 1010.4 |
| 20260505040252 | 55 | 181 | 0.0 | 1.0 | 0.00 | 0.00 | 0.00 | 72 | 1010.7 |
| 20260505035945 | 55 | 171 | 0.0 | 1.0 | 0.00 | 0.00 | 0.00 | 63 | 1010.2 |
| 20260505035940 | 55 | 177 | 0.0 | 1.0 | 0.00 | 0.00 | 0.00 | 70 | 1010.4 |
| 20260505035924 | 55 | 152 | 1.0 | 1.0 | 0.00 | 0.00 | 0.00 | 67 | 1010.6 |
| 20260505035910 | 55 | 183 | 0.0 | 0.0 | 0.00 | 0.00 | 0.00 | 68 | 1010.6 |
| 20260505035903 | 55 | 183 | 0.0 | 0.0 | 0.00 | 0.00 | 0.00 | 67 | 1010.6 |
| 20260505035847 | 55 | 169 | 0.0 | 0.0 | 0.00 | 0.00 | 0.00 | 66 | 1010.4 |
| 20260505035830 | 55 | 177 | 0.0 | 0.0 | 0.00 | 0.00 | 0.00 | 65 | 1010.4 |
| 20260505035555 | 55 | 175 | 0.0 | 0.0 | 0.00 | 0.00 | 0.00 | 63 | 1010.5 |
| 20260505035540 | 55 | 173 | 0.0 | 0.0 | 0.00 | 0.00 | 0.00 | 62 | 1010.5 |
| 20260505035310 | 55 | 167 | 0.0 | 1.0 | 0.00 | 0.00 | 0.00 | 62 | 1010.4 |
| 20260505035254 | 55 | 166 | 0.0 | 1.0 | 0.00 | 0.00 | 0.00 | 62 | 1010.5 |
| 20260505035239 | 55 | 173 | 0.0 | 1.0 | 0.00 | 0.00 | 0.00 | 64 | 1010.5 |
| 20260505035222 | 55 | 171 | 0.0 | 1.0 | 0.00 | 0.00 | 0.00 | 63 | 1010.2 |
| 20260505034954 | 55 | 169 | 0.0 | 1.0 | 0.00 | 0.00 | 0.00 | 63 | 1010.2 |
| 20260505034937 | 55 | 168 | 0.0 | 1.0 | 0.00 | 0.00 | 0.00 | 63 | 1010.6 |
| 20260505034920 | 55 | 166 | 0.0 | 1.0 | 0.00 | 0.00 | 0.00 | 63 | 1010.2 |
| 20260505034905 | 55 | 160 | 0.0 | 1.0 | 0.00 | 0.00 | 0.00 | 63 | 1010.5 |
| 20260505034848 | 55 | 157 | 0.0 | 1.0 | 0.00 | 0.00 | 0.00 | 63 | 1010.6 |
| 20260505034832 | 55 | 151 | 0.0 | 1.0 | 0.00 | 0.00 | 0.00 | 63 | 1010.6 |
| 20260505033817 | 54 | 166 | 0.0 | 2.0 | 0.00 | 0.00 | 0.00 | 64 | 1010.5 |
| 20260505033736 | 54 | 164 | 0.0 | 2.0 | 0.00 | 0.00 | 0.00 | 64 | 1010.5 |
| 20260505033715 | 54 | 164 | 0.0 | 2.0 | 0.00 | 0.00 | 0.00 | 64 | 1010.6 |
| 20260505033701 | 53 | 153 | 0.0 | 2.0 | 0.00 | 0.00 | 0.00 | 67 | 1010.6 |
| 20260505033652 | 53 | 165 | 0.0 | 2.0 | 0.00 | 0.00 | 0.00 | 65 | 1010.2 |
| 20260505033635 | 53 | 166 | 0.0 | 2.0 | 0.00 | 0.00 | 0.00 | 65 | 1010.2 |
| 20260505033618 | 53 | 159 | 0.0 | 2.0 | 0.00 | 0.00 | 0.00 | 66 | 1010.6 |
| 20260505033602 | 53 | 156 | 0.0 | 2.0 | 0.00 | 0.00 | 0.00 | 66 | 1010.6 |
| 20260505033332 | 53 | 156 | 0.0 | 2.0 | 0.00 | 0.00 | 0.00 | 67 | 1010.4 |
| 20260505033030 | 52 | 164 | 0.0 | 1.0 | 0.00 | 0.00 | 0.00 | 71 | 1010.6 |
| 20260505033023 | 52 | 156 | 0.0 | 2.0 | 0.00 | 0.00 | 0.00 | 69 | 1010.2 |
| 20260505033006 | 52 | 133 | 1.0 | 2.0 | 0.00 | 0.00 | 0.00 | 69 | 1010.6 |
| 20260505032951 | 52 | 165 | 0.0 | 1.0 | 0.00 | 0.00 | 0.00 | 71 | 1010.2 |
| 20260505032710 | 52 | 164 | 0.0 | 1.0 | 0.00 | 0.00 | 0.00 | 71 | 1010.6 |
| 20260505032611 | 52 | 157 | 0.0 | 1.0 | 0.00 | 0.00 | 0.00 | 70 | 1010.4 |
| 20260505032550 | 52 | 165 | 0.0 | 0.0 | 0.00 | 0.00 | 0.00 | 72 | 1010.5 |
| 20260505032533 | 53 | 166 | 0.0 | 0.0 | 0.00 | 0.00 | 0.00 | 70 | 1010.6 |
| 20260505032255 | 53 | 166 | 0.0 | 1.0 | 0.00 | 0.00 | 0.00 | 69 | 1010.5 |
| 20260505032245 | 53 | 165 | 0.0 | 1.0 | 0.00 | 0.00 | 0.00 | 69 | 1010.5 |
| 20260505032230 | 53 | 166 | 0.0 | 1.0 | 0.00 | 0.00 | 0.00 | 66 | 1010.5 |
| 20260505031910 | 53 | 162 | 0.0 | 1.0 | 0.00 | 0.00 | 0.00 | 67 | 1010.4 |
| 20260505031811 | 53 | 167 | 0.0 | 1.0 | 0.00 | 0.00 | 0.00 | 65 | 1010.6 |
| 20260505031730 | 53 | 167 | 0.0 | 1.0 | 0.00 | 0.00 | 0.00 | 65 | 1010.5 |
| 20260505031704 | 53 | 167 | 0.0 | 1.0 | 0.00 | 0.00 | 0.00 | 65 | 1010.5 |
| 20260505031559 | 53 | 169 | 0.0 | 1.0 | 0.00 | 0.00 | 0.00 | 67 | 1010.6 |
| 20260505031458 | 53 | 167 | 0.0 | 1.0 | 0.00 | 0.00 | 0.00 | 65 | 1010.5 |
| 20260505031358 | 53 | 170 | 0.0 | 1.0 | 0.00 | 0.00 | 0.00 | 67 | 1010.4 |
| 20260505031259 | 54 | 169 | 0.0 | 1.0 | 0.00 | 0.00 | 0.00 | 65 | 1010.6 |
| 20260505031230 | 54 | 172 | 0.0 | 1.0 | 0.00 | 0.00 | 0.00 | 66 | 1010.6 |
| 20260505031158 | 54 | 174 | 0.0 | 1.0 | 0.00 | 0.00 | 0.00 | 68 | 1010.6 |
| 20260505031058 | 54 | 174 | 0.0 | 1.0 | 0.00 | 0.00 | 0.00 | 64 | 1010.5 |
| 20260505030959 | 54 | 174 | 0.0 | 1.0 | 0.00 | 0.00 | 0.00 | 66 | 1010.6 |
| 20260505030858 | 53 | 173 | 0.0 | 1.0 | 0.00 | 0.00 | 0.00 | 65 | 1010.7 |
| 20260505030822 | 55 | 170 | 0.0 | 1.0 | 0.00 | 0.00 | 0.00 | 67 | 1010.5 |
| 20260505030815 | 53 | 167 | 0.0 | 1.0 | 0.00 | 0.00 | 0.00 | 65 | 1010.7 |
| 20260505030801 | 53 | 155 | 0.0 | 1.0 | 0.00 | 0.00 | 0.00 | 66 | 1010.4 |
| 20260505030751 | 53 | 169 | 0.0 | 1.0 | 0.00 | 0.00 | 0.00 | 69 | 1010.4 |
| 20260505030735 | 53 | 141 | 1.0 | 1.0 | 0.00 | 0.00 | 0.00 | 65 | 1010.6 |
| 20260505030719 | 54 | 174 | 0.0 | 1.0 | 0.00 | 0.00 | 0.00 | 68 | 1010.7 |
| 20260505030702 | 54 | 171 | 0.0 | 1.0 | 0.00 | 0.00 | 0.00 | 66 | 1010.8 |
| 20260505030152 | 55 | 169 | 0.0 | 1.0 | 0.00 | 0.00 | 0.00 | 65 | 1010.5 |
| 20260505030053 | 55 | 166 | 0.0 | 1.0 | 0.00 | 0.00 | 0.00 | 62 | 1010.7 |
| 20260505030016 | 56 | 174 | 0.0 | 1.0 | 0.00 | 0.00 | 0.00 | 61 | 1010.6 |
| 20260505030009 | 55 | 168 | 0.0 | 1.0 | 0.00 | 0.00 | 0.00 | 63 | 1010.6 |
| 20260505025953 | 55 | 158 | 0.0 | 1.0 | 0.00 | 0.00 | 0.00 | 60 | 1010.7 |
| 20260505025937 | 56 | 174 | 0.0 | 1.0 | 0.00 | 0.00 | 0.00 | 61 | 1010.7 |
| 20260505025647 | 56 | 174 | 0.0 | 1.0 | 0.00 | 0.00 | 0.00 | 61 | 1010.6 |
| 20260505025548 | 56 | 175 | 0.0 | 1.0 | 0.00 | 0.00 | 0.00 | 59 | 1010.7 |
| 20260505025447 | 56 | 174 | 0.0 | 1.0 | 0.00 | 0.00 | 0.00 | 58 | 1010.8 |
| 20260505025347 | 56 | 174 | 0.0 | 1.0 | 0.00 | 0.00 | 0.00 | 58 | 1010.7 |
| 20260505025310 | 56 | 174 | 0.0 | 1.0 | 0.00 | 0.00 | 0.00 | 58 | 1010.9 |
| 20260505025258 | 57 | 174 | 0.0 | 1.0 | 0.00 | 0.00 | 0.00 | 57 | 1010.7 |
| 20260505025246 | 57 | 174 | 0.0 | 1.0 | 0.00 | 0.00 | 0.00 | 58 | 1010.7 |
| 20260505025229 | 57 | 169 | 0.0 | 1.0 | 0.00 | 0.00 | 0.00 | 57 | 1010.7 |
| 20260505025214 | 57 | 170 | 0.0 | 1.0 | 0.00 | 0.00 | 0.00 | 57 | 1010.6 |
| 20260505025158 | 56 | 171 | 0.0 | 1.0 | 0.00 | 0.00 | 0.00 | 57 | 1010.7 |
| 20260505025143 | 56 | 176 | 0.0 | 0.0 | 0.00 | 0.00 | 0.00 | 58 | 1010.9 |
| 20260505025130 | 56 | 176 | 0.0 | 0.0 | 0.00 | 0.00 | 0.00 | 58 | 1010.8 |
| 20260505024900 | 57 | 175 | 0.0 | 0.0 | 0.00 | 0.00 | 0.00 | 57 | 1010.9 |
| 20260505024623 | 57 | 169 | 0.0 | 1.0 | 0.00 | 0.00 | 0.00 | 57 | 1010.8 |
| 20260505024350 | 56 | 171 | 0.0 | 1.0 | 0.00 | 0.00 | 0.00 | 57 | 1010.8 |
| 20260505024033 | 56 | 173 | 0.0 | 1.0 | 0.00 | 0.00 | 0.00 | 57 | 1010.9 |
| 20260505024003 | 56 | 171 | 0.0 | 1.0 | 0.00 | 0.00 | 0.00 | 57 | 1010.8 |
| 20260505023948 | 57 | 172 | 0.0 | 1.0 | 0.00 | 0.00 | 0.00 | 58 | 1010.9 |
| 20260505023712 | 57 | 170 | 0.0 | 1.0 | 0.00 | 0.00 | 0.00 | 57 | 1010.8 |
| 20260505023628 | 57 | 167 | 0.0 | 1.0 | 0.00 | 0.00 | 0.00 | 58 | 1010.9 |
| 20260505023527 | 57 | 165 | 0.0 | 1.0 | 0.00 | 0.00 | 0.00 | 57 | 1010.9 |
| 20260505023423 | 57 | 173 | 0.0 | 0.0 | 0.00 | 0.00 | 0.00 | 60 | 1011.1 |
| 20260505023322 | 57 | 172 | 0.0 | 0.0 | 0.00 | 0.00 | 0.00 | 57 | 1010.8 |
| 20260505023216 | 57 | 172 | 0.0 | 0.0 | 0.00 | 0.00 | 0.00 | 56 | 1010.8 |
| 20260505023201 | 57 | 172 | 0.0 | 0.0 | 0.00 | 0.00 | 0.00 | 56 | 1010.8 |
| 20260505023115 | 57 | 176 | 0.0 | 1.0 | 0.00 | 0.00 | 0.00 | 57 | 1010.9 |
| 20260505023016 | 57 | 176 | 0.0 | 1.0 | 0.00 | 0.00 | 0.00 | 57 | 1011.0 |
| 20260505022916 | 57 | 175 | 0.0 | 1.0 | 0.00 | 0.00 | 0.00 | 56 | 1011.0 |
| 20260505022818 | 57 | 176 | 0.0 | 1.0 | 0.00 | 0.00 | 0.00 | 57 | 1011.0 |
| 20260505022716 | 57 | 175 | 0.0 | 1.0 | 0.00 | 0.00 | 0.00 | 57 | 1011.0 |
| 20260505022700 | 57 | 175 | 0.0 | 1.0 | 0.00 | 0.00 | 0.00 | 57 | 1011.0 |
| 20260505022615 | 57 | 176 | 0.0 | 1.0 | 0.00 | 0.00 | 0.00 | 59 | 1010.9 |
| 20260505022538 | 57 | 176 | 0.0 | 1.0 | 0.00 | 0.00 | 0.00 | 56 | 1010.9 |
| 20260505022522 | 57 | 175 | 0.0 | 1.0 | 0.00 | 0.00 | 0.00 | 57 | 1010.8 |
| 20260505022234 | 57 | 162 | 0.0 | 1.0 | 0.00 | 0.00 | 0.00 | 56 | 1010.7 |
| 20260505022215 | 57 | 178 | 0.0 | 0.0 | 0.00 | 0.00 | 0.00 | 56 | 1010.9 |
| 20260505022159 | 58 | 178 | 0.0 | 0.0 | 0.00 | 0.00 | 0.00 | 56 | 1011.0 |
| 20260505022144 | 58 | 177 | 0.0 | 0.0 | 0.00 | 0.00 | 0.00 | 56 | 1011.1 |
| 20260505021658 | 58 | 177 | 0.0 | 0.0 | 0.00 | 0.00 | 0.00 | 55 | 1010.9 |
| 20260505021558 | 58 | 177 | 0.0 | 0.0 | 0.00 | 0.00 | 0.00 | 55 | 1011.0 |
| 20260505021458 | 58 | 176 | 0.0 | 0.0 | 0.00 | 0.00 | 0.00 | 55 | 1010.9 |
| 20260505021343 | 58 | 178 | 0.0 | 0.0 | 0.00 | 0.00 | 0.00 | 55 | 1010.9 |
| 20260505021240 | 58 | 176 | 0.0 | 0.0 | 0.00 | 0.00 | 0.00 | 55 | 1010.8 |
| 20260505021142 | 57 | 175 | 0.0 | 0.0 | 0.00 | 0.00 | 0.00 | 55 | 1010.9 |
| 20260505021116 | 57 | 178 | 0.0 | 0.0 | 0.00 | 0.00 | 0.00 | 55 | 1010.9 |
| 20260505021101 | 57 | 179 | 0.0 | 0.0 | 0.00 | 0.00 | 0.00 | 56 | 1010.9 |
| 20260505020740 | 58 | 180 | 0.0 | 0.0 | 0.00 | 0.00 | 0.00 | 56 | 1010.9 |
| 20260505020648 | 58 | 181 | 0.0 | 0.0 | 0.00 | 0.00 | 0.00 | 57 | 1011.1 |
| 20260505020641 | 58 | 181 | 0.0 | 0.0 | 0.00 | 0.00 | 0.00 | 55 | 1011.1 |
| 20260505020540 | 58 | 181 | 0.0 | 0.0 | 0.00 | 0.00 | 0.00 | 55 | 1011.2 |
| 20260505020511 | 58 | 181 | 0.0 | 0.0 | 0.00 | 0.00 | 0.00 | 57 | 1010.9 |
| 20260505020455 | 57 | 181 | 0.0 | 0.0 | 0.00 | 0.00 | 0.00 | 55 | 1010.9 |
| 20260505020143 | 57 | 181 | 0.0 | 1.0 | 0.00 | 0.00 | 0.00 | 55 | 1011.1 |
| 20260505020135 | 57 | 180 | 0.0 | 1.0 | 0.00 | 0.00 | 0.00 | 55 | 1011.1 |
| 20260505020035 | 57 | 179 | 0.0 | 1.0 | 0.00 | 0.00 | 0.00 | 56 | 1011.1 |
| 20260505015935 | 57 | 179 | 0.0 | 1.0 | 0.00 | 0.00 | 0.00 | 56 | 1011.0 |
| 20260505015836 | 57 | 180 | 0.0 | 1.0 | 0.00 | 0.00 | 0.00 | 61 | 1010.9 |
| 20260505015817 | 57 | 178 | 0.0 | 1.0 | 0.00 | 0.00 | 0.00 | 57 | 1011.3 |
| 20260505015759 | 57 | 182 | 0.0 | 1.0 | 0.00 | 0.00 | 0.00 | 59 | 1011.3 |
| 20260505015754 | 57 | 181 | 0.0 | 1.0 | 0.00 | 0.00 | 0.00 | 59 | 1011.2 |
| 20260505015429 | 57 | 180 | 0.0 | 1.0 | 0.00 | 0.00 | 0.00 | 57 | 1011.2 |
| 20260505015327 | 57 | 175 | 0.0 | 1.0 | 0.00 | 0.00 | 0.00 | 57 | 1011.3 |
| 20260505015229 | 58 | 185 | 0.0 | 0.0 | 0.00 | 0.00 | 0.00 | 60 | 1011.2 |
| 20260505015212 | 58 | 182 | 0.0 | 0.0 | 0.00 | 0.00 | 0.00 | 57 | 1011.2 |
| 20260505015202 | 58 | 182 | 0.0 | 0.0 | 0.00 | 0.00 | 0.00 | 61 | 1010.9 |
| 20260505015147 | 58 | 188 | 0.0 | 0.0 | 0.00 | 0.00 | 0.00 | 56 | 1011.2 |
| 20260505014906 | 58 | 173 | 0.0 | 0.0 | 0.00 | 0.00 | 0.00 | 58 | 1011.3 |
| 20260505014850 | 58 | 173 | 0.0 | 0.0 | 0.00 | 0.00 | 0.00 | 55 | 1011.1 |
| 20260505014834 | 58 | 173 | 0.0 | 0.0 | 0.00 | 0.00 | 0.00 | 54 | 1011.1 |
| 20260505014523 | 58 | 173 | 0.0 | 0.0 | 0.00 | 0.00 | 0.00 | 54 | 1011.1 |
| 20260505014459 | 58 | 173 | 0.0 | 0.0 | 0.00 | 0.00 | 0.00 | 54 | 1011.4 |
| 20260505014444 | 58 | 173 | 0.0 | 0.0 | 0.00 | 0.00 | 0.00 | 57 | 1011.1 |
| 20260505014206 | 58 | 171 | 0.0 | 0.0 | 0.00 | 0.00 | 0.00 | 54 | 1011.5 |
| 20260505014158 | 58 | 171 | 0.0 | 0.0 | 0.00 | 0.00 | 0.00 | 54 | 1011.4 |
| 20260505014142 | 58 | 174 | 0.0 | 0.0 | 0.00 | 0.00 | 0.00 | 54 | 1011.1 |
| 20260505013821 | 58 | 174 | 0.0 | 0.0 | 0.00 | 0.00 | 0.00 | 54 | 1011.1 |
| 20260505013720 | 58 | 173 | 0.0 | 0.0 | 0.00 | 0.00 | 0.00 | 54 | 1011.3 |
| 20260505013629 | 58 | 173 | 0.0 | 0.0 | 0.00 | 0.00 | 0.00 | 55 | 1011.1 |
| 20260505013621 | 58 | 173 | 0.0 | 0.0 | 0.00 | 0.00 | 0.00 | 54 | 1011.1 |
| 20260505013516 | 58 | 173 | 0.0 | 0.0 | 0.00 | 0.00 | 0.00 | 54 | 1011.3 |
| 20260505013423 | 58 | 173 | 0.0 | 0.0 | 0.00 | 0.00 | 0.00 | 54 | 1011.1 |
| 20260505013417 | 58 | 173 | 0.0 | 0.0 | 0.00 | 0.00 | 0.00 | 54 | 1011.3 |
| 20260505013402 | 58 | 173 | 0.0 | 0.0 | 0.00 | 0.00 | 0.00 | 54 | 1011.1 |
| 20260505013346 | 58 | 173 | 0.0 | 0.0 | 0.00 | 0.00 | 0.00 | 54 | 1011.1 |
| 20260505013118 | 58 | 173 | 0.0 | 0.0 | 0.00 | 0.00 | 0.00 | 54 | 1011.1 |
| 20260505013017 | 58 | 173 | 0.0 | 0.0 | 0.00 | 0.00 | 0.00 | 54 | 1011.2 |
| 20260505012915 | 58 | 172 | 0.0 | 0.0 | 0.00 | 0.00 | 0.00 | 54 | 1011.3 |
| 20260505012816 | 58 | 172 | 0.0 | 0.0 | 0.00 | 0.00 | 0.00 | 54 | 1011.2 |
| 20260505012657 | 58 | 172 | 0.0 | 0.0 | 0.00 | 0.00 | 0.00 | 54 | 1011.3 |
| 20260505012614 | 58 | 171 | 0.0 | 0.0 | 0.00 | 0.00 | 0.00 | 54 | 1011.2 |
| 20260505012546 | 58 | 172 | 0.0 | 0.0 | 0.00 | 0.00 | 0.00 | 54 | 1011.2 |
| 20260505012446 | 58 | 171 | 0.0 | 0.0 | 0.00 | 0.00 | 0.00 | 54 | 1011.2 |
| 20260505012346 | 59 | 171 | 0.0 | 0.0 | 0.00 | 0.00 | 0.00 | 54 | 1011.1 |
| 20260505012312 | 59 | 173 | 0.0 | 0.0 | 0.00 | 0.00 | 0.00 | 54 | 1011.1 |
| 20260505012243 | 59 | 171 | 0.0 | 0.0 | 0.00 | 0.00 | 0.00 | 54 | 1011.3 |
| 20260505011927 | 59 | 171 | 0.0 | 0.0 | 0.00 | 0.00 | 0.00 | 54 | 1011.2 |
| 20260505011829 | 59 | 174 | 0.0 | 0.0 | 0.00 | 0.00 | 0.00 | 54 | 1011.3 |
| 20260505011716 | 59 | 174 | 0.0 | 0.0 | 0.00 | 0.00 | 0.00 | 54 | 1011.1 |
| 20260505011616 | 59 | 178 | 0.0 | 0.0 | 0.00 | 0.00 | 0.00 | 54 | 1011.2 |
| 20260505011601 | 59 | 178 | 0.0 | 0.0 | 0.00 | 0.00 | 0.00 | 54 | 1011.2 |
| 20260505011532 | 59 | 172 | 0.0 | 0.0 | 0.00 | 0.00 | 0.00 | 54 | 1011.2 |
| 20260505011525 | 59 | 178 | 0.0 | 0.0 | 0.00 | 0.00 | 0.00 | 54 | 1011.2 |
| 20260505011509 | 59 | 174 | 0.0 | 0.0 | 0.00 | 0.00 | 0.00 | 54 | 1011.2 |
| 20260505011452 | 59 | 174 | 0.0 | 0.0 | 0.00 | 0.00 | 0.00 | 54 | 1011.2 |
| 20260505011437 | 59 | 174 | 0.0 | 0.0 | 0.00 | 0.00 | 0.00 | 54 | 1011.2 |
| 20260505011421 | 59 | 172 | 0.0 | 0.0 | 0.00 | 0.00 | 0.00 | 54 | 1011.2 |
| 20260505011153 | 59 | 176 | 0.0 | 0.0 | 0.00 | 0.00 | 0.00 | 54 | 1011.2 |
| 20260505010923 | 59 | 179 | 0.0 | 0.0 | 0.00 | 0.00 | 0.00 | 54 | 1011.2 |
| 20260505010604 | 59 | 178 | 0.0 | 0.0 | 0.00 | 0.00 | 0.00 | 53 | 1011.1 |
| 20260505010505 | 59 | 176 | 0.0 | 0.0 | 0.00 | 0.00 | 0.00 | 54 | 1011.3 |
| 20260505010403 | 59 | 175 | 0.0 | 0.0 | 0.00 | 0.00 | 0.00 | 54 | 1011.1 |
| 20260505010303 | 59 | 178 | 0.0 | 0.0 | 0.00 | 0.00 | 0.00 | 54 | 1011.3 |
| 20260505010159 | 59 | 176 | 0.0 | 0.0 | 0.00 | 0.00 | 0.00 | 54 | 1011.4 |
| 20260505010113 | 59 | 176 | 0.0 | 0.0 | 0.00 | 0.00 | 0.00 | 54 | 1011.4 |
| 20260505005959 | 59 | 176 | 0.0 | 0.0 | 0.00 | 0.00 | 0.00 | 54 | 1011.3 |
| 20260505005859 | 59 | 174 | 0.0 | 0.0 | 0.00 | 0.00 | 0.00 | 54 | 1011.3 |
| 20260505005758 | 59 | 172 | 0.0 | 0.0 | 0.00 | 0.00 | 0.00 | 54 | 1011.1 |
| 20260505005700 | 59 | 172 | 0.0 | 0.0 | 0.00 | 0.00 | 0.00 | 54 | 1011.3 |
| 20260505005641 | 59 | 172 | 0.0 | 0.0 | 0.00 | 0.00 | 0.00 | 54 | 1011.3 |
| 20260505005625 | 59 | 171 | 0.0 | 0.0 | 0.00 | 0.00 | 0.00 | 54 | 1011.2 |
| 20260505005610 | 59 | 170 | 0.0 | 0.0 | 0.00 | 0.00 | 0.00 | 54 | 1011.2 |
| 20260505005553 | 59 | 171 | 0.0 | 0.0 | 0.00 | 0.00 | 0.00 | 54 | 1011.3 |
| 20260505005539 | 59 | 173 | 0.0 | 0.0 | 0.00 | 0.00 | 0.00 | 54 | 1011.2 |
| 20260505005523 | 59 | 173 | 0.0 | 0.0 | 0.00 | 0.00 | 0.00 | 54 | 1011.3 |
| 20260505004734 | 59 | 172 | 0.0 | 0.0 | 0.00 | 0.00 | 0.00 | 54 | 1011.4 |
| 20260505004635 | 59 | 172 | 0.0 | 0.0 | 0.00 | 0.00 | 0.00 | 54 | 1011.4 |
| 20260505004534 | 59 | 172 | 0.0 | 0.0 | 0.00 | 0.00 | 0.00 | 54 | 1011.4 |
| 20260505004434 | 59 | 172 | 0.0 | 0.0 | 0.00 | 0.00 | 0.00 | 54 | 1011.3 |
| 20260505004333 | 59 | 171 | 0.0 | 0.0 | 0.00 | 0.00 | 0.00 | 54 | 1011.5 |
| 20260505004256 | 59 | 174 | 0.0 | 1.0 | 0.00 | 0.00 | 0.00 | 53 | 1011.2 |
| 20260505004243 | 59 | 173 | 0.0 | 0.0 | 0.00 | 0.00 | 0.00 | 54 | 1011.4 |
| 20260505004228 | 59 | 174 | 0.0 | 0.0 | 0.00 | 0.00 | 0.00 | 54 | 1011.5 |
| 20260505004212 | 59 | 174 | 0.0 | 0.0 | 0.00 | 0.00 | 0.00 | 54 | 1011.5 |
| 20260505003936 | 59 | 174 | 0.0 | 0.0 | 0.00 | 0.00 | 0.00 | 53 | 1011.6 |
| 20260505003914 | 59 | 174 | 0.0 | 0.0 | 0.00 | 0.00 | 0.00 | 53 | 1011.3 |
| 20260505003648 | 59 | 175 | 0.0 | 0.0 | 0.00 | 0.00 | 0.00 | 53 | 1011.5 |
| 20260505003631 | 59 | 174 | 0.0 | 0.0 | 0.00 | 0.00 | 0.00 | 53 | 1011.4 |
| 20260505003615 | 59 | 174 | 0.0 | 0.0 | 0.00 | 0.00 | 0.00 | 53 | 1011.5 |
| 20260505003558 | 59 | 174 | 0.0 | 1.0 | 0.00 | 0.00 | 0.00 | 53 | 1011.3 |
| 20260505003331 | 59 | 174 | 0.0 | 1.0 | 0.00 | 0.00 | 0.00 | 53 | 1011.2 |
| 20260505003011 | 59 | 174 | 0.0 | 1.0 | 0.00 | 0.00 | 0.00 | 53 | 1011.5 |
| 20260505002911 | 59 | 175 | 0.0 | 1.0 | 0.00 | 0.00 | 0.00 | 53 | 1011.4 |
| 20260505002810 | 59 | 174 | 0.0 | 1.0 | 0.00 | 0.00 | 0.00 | 53 | 1011.3 |
| 20260505002719 | 59 | 176 | 0.0 | 1.0 | 0.00 | 0.00 | 0.00 | 53 | 1011.4 |
| 20260505002710 | 59 | 177 | 0.0 | 1.0 | 0.00 | 0.00 | 0.00 | 53 | 1011.4 |
| 20260505002610 | 59 | 173 | 0.0 | 1.0 | 0.00 | 0.00 | 0.00 | 53 | 1011.2 |
| 20260505002510 | 59 | 176 | 0.0 | 1.0 | 0.00 | 0.00 | 0.00 | 53 | 1011.5 |
| 20260505002413 | 59 | 170 | 0.0 | 1.0 | 0.00 | 0.00 | 0.00 | 53 | 1011.5 |
| 20260505002354 | 59 | 170 | 0.0 | 1.0 | 0.00 | 0.00 | 0.00 | 53 | 1011.5 |
| 20260505002331 | 59 | 166 | 0.0 | 1.0 | 0.00 | 0.00 | 0.00 | 53 | 1011.3 |
| 20260505002011 | 59 | 169 | 0.0 | 1.0 | 0.00 | 0.00 | 0.00 | 53 | 1011.4 |
| 20260505001910 | 59 | 164 | 0.0 | 1.0 | 0.00 | 0.00 | 0.00 | 53 | 1011.2 |
| 20260505001807 | 59 | 167 | 0.0 | 1.0 | 0.00 | 0.00 | 0.00 | 53 | 1011.7 |
| 20260505001715 | 59 | 163 | 0.0 | 1.0 | 0.00 | 0.00 | 0.00 | 53 | 1011.5 |
| 20260505001705 | 59 | 169 | 0.0 | 1.0 | 0.00 | 0.00 | 0.00 | 53 | 1011.5 |
| 20260505001606 | 59 | 168 | 0.0 | 1.0 | 0.00 | 0.00 | 0.00 | 53 | 1011.6 |
| 20260505001527 | 59 | 169 | 0.0 | 1.0 | 0.00 | 0.00 | 0.00 | 53 | 1011.6 |
| 20260505001519 | 59 | 165 | 0.0 | 0.0 | 0.00 | 0.00 | 0.00 | 53 | 1011.5 |
| 20260505001503 | 59 | 169 | 0.0 | 0.0 | 0.00 | 0.00 | 0.00 | 53 | 1011.6 |
| 20260505001445 | 59 | 168 | 0.0 | 0.0 | 0.00 | 0.00 | 0.00 | 53 | 1011.6 |
| 20260505001431 | 59 | 161 | 0.0 | 0.0 | 0.00 | 0.00 | 0.00 | 53 | 1011.6 |
| 20260505001421 | 59 | 164 | 0.0 | 0.0 | 0.00 | 0.00 | 0.00 | 53 | 1011.6 |
| 20260505001406 | 59 | 162 | 0.0 | 1.0 | 0.00 | 0.00 | 0.00 | 53 | 1011.6 |
| 20260505001350 | 59 | 169 | 0.0 | 1.0 | 0.00 | 0.00 | 0.00 | 53 | 1011.6 |
| 20260505001335 | 59 | 172 | 0.0 | 1.0 | 0.00 | 0.00 | 0.00 | 53 | 1011.7 |
| 20260505001318 | 59 | 170 | 0.0 | 1.0 | 0.00 | 0.00 | 0.00 | 53 | 1011.7 |
| 20260505001304 | 59 | 169 | 0.0 | 1.0 | 0.00 | 0.00 | 0.00 | 53 | 1011.6 |
| 20260505001255 | 59 | 165 | 0.0 | 1.0 | 0.00 | 0.00 | 0.00 | 53 | 1011.6 |
| 20260505000758 | 59 | 167 | 0.0 | 1.0 | 0.00 | 0.00 | 0.00 | 53 | 1011.6 |
| 20260505000308 | 59 | 167 | 0.0 | 1.0 | 0.00 | 0.00 | 0.00 | 52 | 1011.8 |
| 20260505000032 | 59 | 174 | 0.0 | 0.0 | 0.00 | 0.00 | 0.00 | 53 | 1011.7 |
| 20260505000013 | 59 | 175 | 0.0 | 0.0 | 0.00 | 0.00 | 0.00 | 53 | 1011.7 |
| 20260504235950 | 59 | 175 | 0.0 | 0.0 | 0.00 | 0.00 | 0.00 | 53 | 1011.6 |
| 20260504235436 | 59 | 175 | 0.0 | 0.0 | 0.00 | 0.00 | 0.00 | 53 | 1011.6 |
| 20260504235158 | 59 | 174 | 0.0 | 0.0 | 0.00 | 0.00 | 0.00 | 53 | 1011.7 |
| 20260504235054 | 60 | 170 | 0.0 | 1.0 | 0.00 | 0.00 | 0.00 | 52 | 1012.1 |
| 20260504235050 | 61 | 192 | 0.0 | 0.0 | 0.00 | 0.00 | 0.00 | 52 | 1011.8 |
| 20260504235042 | 60 | 168 | 0.0 | 0.0 | 0.00 | 0.00 | 0.00 | 52 | 1011.8 |
| 20260504234808 | 60 | 168 | 0.0 | 1.0 | 0.00 | 0.00 | 0.00 | 52 | 1011.8 |
| 20260504234753 | 60 | 179 | 0.0 | 1.0 | 0.00 | 0.00 | 0.00 | 52 | 1011.9 |
| 20260504234525 | 60 | 170 | 0.0 | 1.0 | 0.00 | 0.00 | 0.00 | 52 | 1012.1 |
| 20260504234506 | 60 | 167 | 0.0 | 1.0 | 0.00 | 0.00 | 0.00 | 52 | 1012.0 |
| 20260504234449 | 60 | 167 | 0.0 | 1.0 | 0.00 | 0.00 | 0.00 | 52 | 1011.9 |
| 20260504234433 | 60 | 174 | 0.0 | 1.0 | 0.00 | 0.00 | 0.00 | 52 | 1011.8 |
| 20260504234418 | 60 | 168 | 0.0 | 1.0 | 0.00 | 0.00 | 0.00 | 51 | 1012.0 |
| 20260504234354 | 60 | 169 | 0.0 | 1.0 | 0.00 | 0.00 | 0.00 | 51 | 1011.7 |
| 20260504234339 | 60 | 168 | 0.0 | 1.0 | 0.00 | 0.00 | 0.00 | 51 | 1011.9 |
| 20260504233625 | 60 | 187 | 0.0 | 0.0 | 0.00 | 0.00 | 0.00 | 50 | 1011.9 |
| 20260504233354 | 60 | 185 | 0.0 | 0.0 | 0.00 | 0.00 | 0.00 | 53 | 1011.9 |
| 20260504233338 | 60 | 192 | 0.0 | 0.0 | 0.00 | 0.00 | 0.00 | 50 | 1011.8 |
| 20260504233323 | 61 | 192 | 0.0 | 0.0 | 0.00 | 0.00 | 0.00 | 52 | 1012.2 |
| 20260504233306 | 61 | 192 | 0.0 | 0.0 | 0.00 | 0.00 | 0.00 | 50 | 1011.8 |
| 20260504232734 | 61 | 192 | 0.0 | 1.0 | 0.00 | 0.00 | 0.00 | 50 | 1011.9 |
| 20260504232634 | 61 | 192 | 0.0 | 1.0 | 0.00 | 0.00 | 0.00 | 50 | 1011.7 |
| 20260504232533 | 61 | 196 | 0.0 | 1.0 | 0.00 | 0.00 | 0.00 | 50 | 1011.9 |
| 20260504232439 | 61 | 198 | 0.0 | 1.0 | 0.00 | 0.00 | 0.00 | 50 | 1012.0 |
| 20260504232425 | 61 | 201 | 0.0 | 1.0 | 0.00 | 0.00 | 0.00 | 50 | 1012.0 |
| 20260504232417 | 61 | 225 | 0.0 | 1.0 | 0.00 | 0.00 | 0.00 | 50 | 1011.9 |
| 20260504232358 | 62 | 225 | 0.0 | 1.0 | 0.00 | 0.00 | 0.00 | 50 | 1011.8 |
| 20260504232122 | 62 | 196 | 0.0 | 1.0 | 0.00 | 0.00 | 0.00 | 49 | 1012.0 |
| 20260504232107 | 62 | 201 | 0.0 | 1.0 | 0.00 | 0.00 | 0.00 | 49 | 1011.8 |
| 20260504232052 | 62 | 212 | 1.0 | 1.0 | 0.00 | 0.00 | 0.00 | 49 | 1011.8 |
| 20260504231736 | 62 | 198 | 0.0 | 1.0 | 0.00 | 0.00 | 0.00 | 49 | 1012.0 |
| 20260504231633 | 62 | 198 | 0.0 | 1.0 | 0.00 | 0.00 | 0.00 | 49 | 1011.8 |
| 20260504231534 | 62 | 203 | 0.0 | 1.0 | 0.00 | 0.00 | 0.00 | 48 | 1011.8 |
| 20260504231434 | 62 | 209 | 1.0 | 1.0 | 0.00 | 0.00 | 0.00 | 48 | 1011.9 |
| 20260504231329 | 62 | 202 | 0.0 | 3.0 | 0.00 | 0.00 | 0.00 | 48 | 1011.9 |
| 20260504231231 | 62 | 199 | 0.0 | 3.0 | 0.00 | 0.00 | 0.00 | 48 | 1011.9 |
| 20260504231129 | 62 | 205 | 1.0 | 3.0 | 0.00 | 0.00 | 0.00 | 48 | 1011.9 |
| 20260504231113 | 62 | 198 | 0.0 | 3.0 | 0.00 | 0.00 | 0.00 | 49 | 1012.2 |
| 20260504231056 | 62 | 200 | 0.0 | 3.0 | 0.00 | 0.00 | 0.00 | 48 | 1011.9 |
| 20260504231042 | 62 | 202 | 0.0 | 3.0 | 0.00 | 0.00 | 0.00 | 48 | 1011.9 |
| 20260504230730 | 62 | 206 | 0.0 | 3.0 | 0.00 | 0.00 | 0.00 | 48 | 1012.1 |
| 20260504230628 | 62 | 212 | 1.0 | 3.0 | 0.00 | 0.00 | 0.00 | 48 | 1012.0 |
| 20260504230608 | 62 | 201 | 0.0 | 3.0 | 0.00 | 0.00 | 0.00 | 48 | 1012.0 |
| 20260504230552 | 62 | 222 | 2.0 | 4.0 | 0.00 | 0.00 | 0.00 | 47 | 1012.1 |
| 20260504230538 | 62 | 205 | 0.0 | 4.0 | 0.00 | 0.00 | 0.00 | 47 | 1012.1 |
| 20260504230224 | 62 | 206 | 0.0 | 4.0 | 0.00 | 0.00 | 0.00 | 47 | 1011.9 |
| 20260504230125 | 63 | 203 | 0.0 | 4.0 | 0.00 | 0.00 | 0.00 | 48 | 1012.0 |
| 20260504230024 | 63 | 208 | 0.0 | 4.0 | 0.00 | 0.00 | 0.00 | 47 | 1012.3 |
| 20260504230007 | 63 | 205 | 1.0 | 4.0 | 0.00 | 0.00 | 0.00 | 47 | 1012.0 |
| 20260504225952 | 63 | 198 | 0.0 | 4.0 | 0.00 | 0.00 | 0.00 | 47 | 1012.0 |
| 20260504225944 | 63 | 207 | 0.0 | 4.0 | 0.00 | 0.00 | 0.00 | 47 | 1012.0 |
| 20260504225624 | 63 | 199 | 0.0 | 4.0 | 0.00 | 0.00 | 0.00 | 47 | 1012.1 |
| 20260504225525 | 63 | 206 | 1.0 | 4.0 | 0.00 | 0.00 | 0.00 | 46 | 1012.2 |
| 20260504225508 | 63 | 208 | 1.0 | 3.0 | 0.00 | 0.00 | 0.00 | 46 | 1012.1 |
| 20260504225454 | 63 | 205 | 0.0 | 3.0 | 0.00 | 0.00 | 0.00 | 47 | 1012.1 |
| 20260504225445 | 63 | 206 | 1.0 | 3.0 | 0.00 | 0.00 | 0.00 | 46 | 1012.0 |
| 20260504225125 | 63 | 210 | 0.0 | 3.0 | 0.00 | 0.00 | 0.00 | 46 | 1012.2 |
| 20260504225024 | 63 | 205 | 0.0 | 3.0 | 0.00 | 0.00 | 0.00 | 47 | 1012.2 |
| 20260504224925 | 63 | 213 | 1.0 | 3.0 | 0.00 | 0.00 | 0.00 | 46 | 1012.2 |
| 20260504224911 | 63 | 208 | 0.0 | 3.0 | 0.00 | 0.00 | 0.00 | 46 | 1012.2 |
| 20260504224903 | 63 | 206 | 0.0 | 3.0 | 0.00 | 0.00 | 0.00 | 47 | 1012.3 |
| 20260504224846 | 63 | 201 | 0.0 | 3.0 | 0.00 | 0.00 | 0.00 | 47 | 1012.5 |
| 20260504224525 | 63 | 198 | 0.0 | 3.0 | 0.00 | 0.00 | 0.00 | 47 | 1012.1 |
| 20260504224424 | 63 | 207 | 2.0 | 3.0 | 0.00 | 0.00 | 0.00 | 46 | 1012.2 |
| 20260504224344 | 63 | 207 | 0.0 | 2.0 | 0.00 | 0.00 | 0.00 | 47 | 1012.2 |
| 20260504224325 | 63 | 206 | 0.0 | 2.0 | 0.00 | 0.00 | 0.00 | 47 | 1012.1 |
| 20260504224223 | 63 | 207 | 0.0 | 2.0 | 0.00 | 0.00 | 0.00 | 47 | 1012.3 |
| 20260504224212 | 63 | 218 | 1.0 | 4.0 | 0.00 | 0.00 | 0.00 | 45 | 1012.2 |
| 20260504224203 | 63 | 201 | 0.0 | 2.0 | 0.00 | 0.00 | 0.00 | 47 | 1012.2 |
| 20260504224147 | 63 | 204 | 0.0 | 3.0 | 0.00 | 0.00 | 0.00 | 47 | 1012.4 |
| 20260504224132 | 63 | 202 | 0.0 | 3.0 | 0.00 | 0.00 | 0.00 | 46 | 1012.2 |
| 20260504224117 | 63 | 198 | 0.0 | 3.0 | 0.00 | 0.00 | 0.00 | 46 | 1012.2 |
| 20260504224110 | 63 | 202 | 1.0 | 3.0 | 0.00 | 0.00 | 0.00 | 46 | 1012.0 |
| 20260504224055 | 63 | 165 | 0.0 | 3.0 | 0.00 | 0.00 | 0.00 | 46 | 1012.4 |
| 20260504224040 | 63 | 214 | 0.0 | 3.0 | 0.00 | 0.00 | 0.00 | 46 | 1012.5 |
| 20260504224023 | 63 | 205 | 0.0 | 3.0 | 0.00 | 0.00 | 0.00 | 47 | 1012.1 |
| 20260504223750 | 63 | 201 | 0.0 | 3.0 | 0.00 | 0.00 | 0.00 | 46 | 1012.3 |
| 20260504223741 | 63 | 202 | 0.0 | 3.0 | 0.00 | 0.00 | 0.00 | 46 | 1012.3 |
| 20260504223242 | 63 | 204 | 0.0 | 4.0 | 0.00 | 0.00 | 0.00 | 46 | 1012.3 |
| 20260504223225 | 63 | 229 | 3.0 | 4.0 | 0.00 | 0.00 | 0.00 | 45 | 1012.3 |
| 20260504222653 | 63 | 225 | 1.0 | 4.0 | 0.00 | 0.00 | 0.00 | 45 | 1012.5 |
| 20260504222555 | 63 | 203 | 0.0 | 6.0 | 0.00 | 0.00 | 0.00 | 46 | 1012.4 |
| 20260504222454 | 63 | 216 | 1.0 | 6.0 | 0.00 | 0.00 | 0.00 | 45 | 1012.2 |
| 20260504222340 | 63 | 203 | 0.0 | 6.0 | 0.00 | 0.00 | 0.00 | 45 | 1012.5 |
| 20260504222325 | 63 | 212 | 1.0 | 6.0 | 0.00 | 0.00 | 0.00 | 45 | 1012.3 |
| 20260504222234 | 63 | 211 | 1.0 | 6.0 | 0.00 | 0.00 | 0.00 | 46 | 1012.2 |
| 20260504222124 | 63 | 222 | 3.0 | 6.0 | 0.00 | 0.00 | 0.00 | 46 | 1012.4 |
| 20260504222025 | 63 | 224 | 1.0 | 6.0 | 0.00 | 0.00 | 0.00 | 46 | 1012.2 |
| 20260504221924 | 63 | 216 | 1.0 | 6.0 | 0.00 | 0.00 | 0.00 | 46 | 1012.4 |
| 20260504221825 | 63 | 220 | 1.0 | 6.0 | 0.00 | 0.00 | 0.00 | 46 | 1012.5 |
| 20260504221724 | 63 | 243 | 2.0 | 6.0 | 0.00 | 0.00 | 0.00 | 46 | 1012.5 |
| 20260504221624 | 63 | 239 | 4.0 | 6.0 | 0.00 | 0.00 | 0.00 | 46 | 1012.3 |
| 20260504221523 | 63 | 223 | 1.0 | 6.0 | 0.00 | 0.00 | 0.00 | 46 | 1012.3 |
| 20260504221418 | 63 | 217 | 1.0 | 6.0 | 0.00 | 0.00 | 0.00 | 47 | 1012.2 |
| 20260504221318 | 63 | 233 | 3.0 | 6.0 | 0.00 | 0.00 | 0.00 | 47 | 1012.6 |
| 20260504221217 | 63 | 229 | 2.0 | 6.0 | 0.00 | 0.00 | 0.00 | 47 | 1012.3 |
| 20260504221127 | 63 | 230 | 4.0 | 6.0 | 0.00 | 0.00 | 0.00 | 47 | 1012.3 |
| 20260504221112 | 63 | 211 | 0.0 | 6.0 | 0.00 | 0.00 | 0.00 | 47 | 1012.2 |
| 20260504221056 | 63 | 209 | 1.0 | 6.0 | 0.00 | 0.00 | 0.00 | 47 | 1012.3 |
| 20260504220830 | 63 | 229 | 3.0 | 6.0 | 0.00 | 0.00 | 0.00 | 47 | 1012.3 |
| 20260504220718 | 63 | 227 | 2.0 | 4.0 | 0.00 | 0.00 | 0.00 | 48 | 1012.2 |
| 20260504220617 | 63 | 213 | 2.0 | 4.0 | 0.00 | 0.00 | 0.00 | 48 | 1012.4 |
| 20260504220512 | 63 | 225 | 4.0 | 4.0 | 0.00 | 0.00 | 0.00 | 48 | 1012.3 |
| 20260504220412 | 63 | 213 | 2.0 | 4.0 | 0.00 | 0.00 | 0.00 | 48 | 1012.5 |
| 20260504220312 | 63 | 211 | 0.0 | 4.0 | 0.00 | 0.00 | 0.00 | 48 | 1012.4 |
| 20260504220212 | 63 | 205 | 0.0 | 4.0 | 0.00 | 0.00 | 0.00 | 48 | 1012.3 |
| 20260504220112 | 63 | 222 | 1.0 | 4.0 | 0.00 | 0.00 | 0.00 | 48 | 1012.5 |
| 20260504220013 | 63 | 214 | 1.0 | 4.0 | 0.00 | 0.00 | 0.00 | 48 | 1012.5 |
| 20260504215912 | 63 | 210 | 1.0 | 4.0 | 0.00 | 0.00 | 0.00 | 48 | 1012.4 |
| 20260504215812 | 63 | 204 | 1.0 | 4.0 | 0.00 | 0.00 | 0.00 | 48 | 1012.2 |
| 20260504215748 | 63 | 235 | 3.0 | 3.0 | 0.00 | 0.00 | 0.00 | 47 | 1012.4 |
| 20260504215731 | 63 | 224 | 3.0 | 3.0 | 0.00 | 0.00 | 0.00 | 47 | 1012.4 |
| 20260504215410 | 63 | 210 | 2.0 | 3.0 | 0.00 | 0.00 | 0.00 | 47 | 1012.4 |
| 20260504215311 | 63 | 209 | 1.0 | 2.0 | 0.00 | 0.00 | 0.00 | 48 | 1012.4 |
| 20260504215210 | 63 | 211 | 1.0 | 2.0 | 0.00 | 0.00 | 0.00 | 48 | 1012.3 |
| 20260504215136 | 64 | 201 | 0.0 | 1.0 | 0.00 | 0.00 | 0.00 | 47 | 1012.5 |
| 20260504215130 | 63 | 214 | 1.0 | 2.0 | 0.00 | 0.00 | 0.00 | 48 | 1012.3 |
| 20260504215114 | 63 | 194 | 0.0 | 1.0 | 0.00 | 0.00 | 0.00 | 48 | 1012.3 |
| 20260504215059 | 63 | 195 | 0.0 | 1.0 | 0.00 | 0.00 | 0.00 | 48 | 1012.2 |
| 20260504214832 | 64 | 196 | 0.0 | 1.0 | 0.00 | 0.00 | 0.00 | 48 | 1012.4 |
| 20260504214818 | 64 | 196 | 0.0 | 1.0 | 0.00 | 0.00 | 0.00 | 47 | 1012.3 |
| 20260504214802 | 64 | 196 | 0.0 | 1.0 | 0.00 | 0.00 | 0.00 | 47 | 1012.3 |
| 20260504214746 | 64 | 198 | 0.0 | 1.0 | 0.00 | 0.00 | 0.00 | 47 | 1012.5 |
| 20260504214731 | 64 | 191 | 0.0 | 1.0 | 0.00 | 0.00 | 0.00 | 46 | 1012.4 |
| 20260504214231 | 64 | 203 | 0.0 | 1.0 | 0.00 | 0.00 | 0.00 | 47 | 1012.6 |
| 20260504214214 | 64 | 202 | 0.0 | 1.0 | 0.00 | 0.00 | 0.00 | 47 | 1012.2 |
| 20260504213854 | 64 | 215 | 0.0 | 1.0 | 0.00 | 0.00 | 0.00 | 46 | 1012.4 |
| 20260504213754 | 64 | 199 | 0.0 | 1.0 | 0.00 | 0.00 | 0.00 | 47 | 1012.4 |
| 20260504213654 | 64 | 201 | 0.0 | 2.0 | 0.00 | 0.00 | 0.00 | 47 | 1012.4 |
| 20260504213628 | 64 | 204 | 0.0 | 4.0 | 0.00 | 0.00 | 0.00 | 47 | 1012.4 |
| 20260504213612 | 64 | 201 | 0.0 | 4.0 | 0.00 | 0.00 | 0.00 | 47 | 1012.5 |
| 20260504213252 | 64 | 201 | 0.0 | 4.0 | 0.00 | 0.00 | 0.00 | 47 | 1012.3 |
| 20260504213225 | 64 | 202 | 0.0 | 4.0 | 0.00 | 0.00 | 0.00 | 47 | 1012.5 |
| 20260504213208 | 64 | 207 | 0.0 | 4.0 | 0.00 | 0.00 | 0.00 | 47 | 1012.3 |
| 20260504212848 | 64 | 208 | 1.0 | 4.0 | 0.00 | 0.00 | 0.00 | 46 | 1012.5 |
| 20260504212747 | 64 | 202 | 1.0 | 4.0 | 0.00 | 0.00 | 0.00 | 46 | 1012.6 |
| 20260504212647 | 64 | 213 | 3.0 | 4.0 | 0.00 | 0.00 | 0.00 | 46 | 1012.4 |
| 20260504212548 | 64 | 220 | 1.0 | 3.0 | 0.00 | 0.00 | 0.00 | 47 | 1012.3 |
| 20260504212448 | 64 | 215 | 2.0 | 3.0 | 0.00 | 0.00 | 0.00 | 47 | 1012.2 |
| 20260504212347 | 64 | 199 | 0.0 | 3.0 | 0.00 | 0.00 | 0.00 | 47 | 1012.4 |
| 20260504212307 | 64 | 210 | 1.0 | 4.0 | 0.00 | 0.00 | 0.00 | 47 | 1012.4 |
| 20260504212224 | 64 | 204 | 0.0 | 4.0 | 0.00 | 0.00 | 0.00 | 48 | 1012.3 |
| 20260504212208 | 64 | 217 | 2.0 | 4.0 | 0.00 | 0.00 | 0.00 | 48 | 1012.4 |
| 20260504211858 | 64 | 219 | 2.0 | 3.0 | 0.00 | 0.00 | 0.00 | 48 | 1012.5 |
| 20260504211853 | 64 | 204 | 0.0 | 4.0 | 0.00 | 0.00 | 0.00 | 48 | 1012.5 |
| 20260504211831 | 64 | 211 | 0.0 | 4.0 | 0.00 | 0.00 | 0.00 | 48 | 1012.4 |
| 20260504211814 | 64 | 205 | 0.0 | 4.0 | 0.00 | 0.00 | 0.00 | 48 | 1012.3 |
| 20260504211538 | 64 | 203 | 0.0 | 4.0 | 0.00 | 0.00 | 0.00 | 48 | 1012.3 |
| 20260504211522 | 64 | 210 | 2.0 | 4.0 | 0.00 | 0.00 | 0.00 | 48 | 1012.4 |
| 20260504211504 | 64 | 219 | 2.0 | 3.0 | 0.00 | 0.00 | 0.00 | 48 | 1012.5 |
| 20260504211141 | 64 | 205 | 0.0 | 3.0 | 0.00 | 0.00 | 0.00 | 48 | 1012.3 |
| 20260504211046 | 64 | 194 | 0.0 | 4.0 | 0.00 | 0.00 | 0.00 | 49 | 1012.3 |
| 20260504210943 | 64 | 226 | 0.0 | 4.0 | 0.00 | 0.00 | 0.00 | 49 | 1012.5 |
| 20260504210842 | 64 | 209 | 1.0 | 4.0 | 0.00 | 0.00 | 0.00 | 48 | 1012.2 |
| 20260504210741 | 64 | 209 | 0.0 | 4.0 | 0.00 | 0.00 | 0.00 | 48 | 1012.4 |
| 20260504210717 | 64 | 212 | 0.0 | 4.0 | 0.00 | 0.00 | 0.00 | 48 | 1012.3 |
| 20260504210702 | 64 | 214 | 1.0 | 4.0 | 0.00 | 0.00 | 0.00 | 48 | 1012.4 |
| 20260504210340 | 65 | 203 | 0.0 | 6.0 | 0.00 | 0.00 | 0.00 | 48 | 1012.5 |
| 20260504210314 | 65 | 196 | 0.0 | 6.0 | 0.00 | 0.00 | 0.00 | 48 | 1012.5 |
| 20260504210257 | 65 | 211 | 1.0 | 6.0 | 0.00 | 0.00 | 0.00 | 48 | 1012.4 |
| 20260504205938 | 65 | 210 | 0.0 | 6.0 | 0.00 | 0.00 | 0.00 | 48 | 1012.4 |
| 20260504205921 | 65 | 218 | 0.0 | 6.0 | 0.00 | 0.00 | 0.00 | 48 | 1012.6 |
| 20260504205859 | 65 | 228 | 1.0 | 6.0 | 0.00 | 0.00 | 0.00 | 47 | 1012.6 |
| 20260504205536 | 65 | 216 | 3.0 | 6.0 | 0.00 | 0.00 | 0.00 | 47 | 1012.4 |
| 20260504205437 | 65 | 198 | 0.0 | 4.0 | 0.00 | 0.00 | 0.00 | 48 | 1012.3 |
| 20260504205335 | 65 | 211 | 3.0 | 4.0 | 0.00 | 0.00 | 0.00 | 47 | 1012.4 |
| 20260504205236 | 65 | 218 | 1.0 | 3.0 | 0.00 | 0.00 | 0.00 | 48 | 1012.4 |
| 20260504205211 | 65 | 222 | 0.0 | 3.0 | 0.00 | 0.00 | 0.00 | 48 | 1012.4 |
| 20260504205155 | 65 | 210 | 0.0 | 3.0 | 0.00 | 0.00 | 0.00 | 48 | 1012.4 |
| 20260504204834 | 65 | 200 | 0.0 | 3.0 | 0.00 | 0.00 | 0.00 | 47 | 1012.5 |
| 20260504204734 | 66 | 203 | 0.0 | 3.0 | 0.00 | 0.00 | 0.00 | 47 | 1012.4 |
| 20260504204708 | 66 | 220 | 2.0 | 3.0 | 0.00 | 0.00 | 0.00 | 47 | 1012.5 |
| 20260504204651 | 66 | 223 | 1.0 | 3.0 | 0.00 | 0.00 | 0.00 | 47 | 1012.6 |
| 20260504204330 | 66 | 205 | 2.0 | 3.0 | 0.00 | 0.00 | 0.00 | 47 | 1012.5 |
| 20260504204240 | 66 | 215 | 3.0 | 3.0 | 0.00 | 0.00 | 0.00 | 47 | 1012.5 |
| 20260504204223 | 66 | 204 | 1.0 | 4.0 | 0.00 | 0.00 | 0.00 | 47 | 1012.4 |
| 20260504204207 | 66 | 225 | 2.0 | 4.0 | 0.00 | 0.00 | 0.00 | 46 | 1012.3 |
| 20260504204151 | 66 | 200 | 0.0 | 4.0 | 0.00 | 0.00 | 0.00 | 47 | 1012.5 |
| 20260504204136 | 66 | 221 | 2.0 | 6.0 | 0.00 | 0.00 | 0.00 | 46 | 1012.6 |
| 20260504204114 | 66 | 193 | 2.0 | 6.0 | 0.00 | 0.00 | 0.00 | 46 | 1012.4 |
| 20260504204058 | 66 | 220 | 1.0 | 6.0 | 0.00 | 0.00 | 0.00 | 47 | 1012.2 |
| 20260504204044 | 66 | 211 | 0.0 | 6.0 | 0.00 | 0.00 | 0.00 | 47 | 1012.4 |
| 20260504203807 | 66 | 229 | 0.0 | 6.0 | 0.00 | 0.00 | 0.00 | 47 | 1012.3 |
| 20260504203744 | 66 | 203 | 3.0 | 6.0 | 0.00 | 0.00 | 0.00 | 46 | 1012.5 |
| 20260504203244 | 66 | 228 | 4.0 | 6.0 | 0.00 | 0.00 | 0.00 | 47 | 1012.5 |
| 20260504203002 | 66 | 217 | 2.0 | 8.0 | 0.00 | 0.00 | 0.00 | 47 | 1012.4 |
| 20260504202944 | 66 | 207 | 1.0 | 8.0 | 0.00 | 0.00 | 0.00 | 47 | 1012.4 |
| 20260504202709 | 66 | 217 | 2.0 | 8.0 | 0.00 | 0.00 | 0.00 | 47 | 1012.3 |
| 20260504202217 | 66 | 210 | 1.0 | 8.0 | 0.00 | 0.00 | 0.00 | 47 | 1012.4 |
| 20260504202117 | 66 | 215 | 3.0 | 8.0 | 0.00 | 0.00 | 0.00 | 48 | 1012.4 |
| 20260504202047 | 66 | 219 | 3.0 | 8.0 | 0.00 | 0.00 | 0.00 | 48 | 1012.4 |
| 20260504202030 | 66 | 237 | 2.0 | 8.0 | 0.00 | 0.00 | 0.00 | 48 | 1012.4 |
| 20260504202014 | 66 | 210 | 2.0 | 8.0 | 0.00 | 0.00 | 0.00 | 48 | 1012.2 |
| 20260504201951 | 66 | 221 | 3.0 | 7.0 | 0.00 | 0.00 | 0.00 | 49 | 1012.3 |
| 20260504201412 | 66 | 205 | 1.0 | 4.0 | 0.00 | 0.00 | 0.00 | 49 | 1012.3 |
| 20260504201314 | 66 | 241 | 2.0 | 4.0 | 0.00 | 0.00 | 0.00 | 50 | 1012.4 |
| 20260504201213 | 66 | 206 | 1.0 | 4.0 | 0.00 | 0.00 | 0.00 | 49 | 1012.3 |
| 20260504201110 | 66 | 192 | 0.0 | 4.0 | 0.00 | 0.00 | 0.00 | 50 | 1012.3 |
| 20260504201010 | 66 | 207 | 2.0 | 4.0 | 0.00 | 0.00 | 0.00 | 50 | 1012.3 |
| 20260504200910 | 66 | 187 | 0.0 | 4.0 | 0.00 | 0.00 | 0.00 | 50 | 1012.3 |
| 20260504200810 | 66 | 215 | 1.0 | 4.0 | 0.00 | 0.00 | 0.00 | 50 | 1012.3 |
| 20260504200711 | 66 | 237 | 1.0 | 4.0 | 0.00 | 0.00 | 0.00 | 50 | 1012.3 |
| 20260504200610 | 66 | 191 | 0.0 | 4.0 | 0.00 | 0.00 | 0.00 | 50 | 1012.3 |
| 20260504200554 | 66 | 218 | 1.0 | 3.0 | 0.00 | 0.00 | 0.00 | 51 | 1012.3 |
| 20260504200546 | 66 | 223 | 3.0 | 4.0 | 0.00 | 0.00 | 0.00 | 50 | 1012.4 |
| 20260504200525 | 66 | 213 | 3.0 | 4.0 | 0.00 | 0.00 | 0.00 | 51 | 1012.4 |
| 20260504200510 | 66 | 221 | 0.0 | 3.0 | 0.00 | 0.00 | 0.00 | 51 | 1012.2 |
| 20260504200452 | 66 | 218 | 1.0 | 3.0 | 0.00 | 0.00 | 0.00 | 51 | 1012.3 |
| 20260504200225 | 66 | 215 | 0.0 | 3.0 | 0.00 | 0.00 | 0.00 | 51 | 1012.2 |
| 20260504195904 | 66 | 203 | 0.0 | 4.0 | 0.00 | 0.00 | 0.00 | 52 | 1012.3 |
| 20260504195759 | 66 | 221 | 1.0 | 4.0 | 0.00 | 0.00 | 0.00 | 52 | 1012.3 |
| 20260504195658 | 66 | 217 | 0.0 | 4.0 | 0.00 | 0.00 | 0.00 | 52 | 1012.3 |
| 20260504195653 | 66 | 200 | 0.0 | 4.0 | 0.00 | 0.00 | 0.00 | 52 | 1012.3 |
| 20260504195542 | 67 | 201 | 0.0 | 4.0 | 0.00 | 0.00 | 0.00 | 52 | 1012.2 |
| 20260504195443 | 67 | 204 | 0.0 | 4.0 | 0.00 | 0.00 | 0.00 | 52 | 1012.3 |
| 20260504195427 | 67 | 224 | 2.0 | 4.0 | 0.00 | 0.00 | 0.00 | 52 | 1012.2 |
| 20260504195411 | 67 | 204 | 1.0 | 4.0 | 0.00 | 0.00 | 0.00 | 51 | 1012.4 |
| 20260504195356 | 67 | 209 | 1.0 | 4.0 | 0.00 | 0.00 | 0.00 | 52 | 1012.6 |
| 20260504195042 | 67 | 225 | 1.0 | 4.0 | 0.00 | 0.00 | 0.00 | 51 | 1012.3 |
| 20260504194940 | 67 | 202 | 0.0 | 3.0 | 0.00 | 0.00 | 0.00 | 52 | 1012.3 |
| 20260504194840 | 67 | 222 | 2.0 | 3.0 | 0.00 | 0.00 | 0.00 | 52 | 1012.2 |
| 20260504194732 | 67 | 221 | 2.0 | 3.0 | 0.00 | 0.00 | 0.00 | 52 | 1012.1 |
| 20260504194650 | 67 | 212 | 1.0 | 3.0 | 0.00 | 0.00 | 0.00 | 52 | 1012.1 |
| 20260504194630 | 67 | 225 | 1.0 | 3.0 | 0.00 | 0.00 | 0.00 | 52 | 1012.3 |
| 20260504194530 | 67 | 224 | 3.0 | 3.0 | 0.00 | 0.00 | 0.00 | 52 | 1012.1 |
| 20260504194430 | 67 | 222 | 1.0 | 3.0 | 0.00 | 0.00 | 0.00 | 52 | 1012.3 |
| 20260504194328 | 67 | 216 | 2.0 | 3.0 | 0.00 | 0.00 | 0.00 | 52 | 1012.5 |
| 20260504194303 | 67 | 207 | 0.0 | 4.0 | 0.00 | 0.00 | 0.00 | 52 | 1012.6 |
| 20260504194248 | 67 | 215 | 2.0 | 4.0 | 0.00 | 0.00 | 0.00 | 51 | 1012.6 |
| 20260504194124 | 67 | 211 | 2.0 | 4.0 | 0.00 | 0.00 | 0.00 | 51 | 1012.3 |
| 20260504194022 | 67 | 208 | 0.0 | 4.0 | 0.00 | 0.00 | 0.00 | 51 | 1012.4 |
| 20260504193914 | 67 | 234 | 2.0 | 4.0 | 0.00 | 0.00 | 0.00 | 51 | 1012.1 |
| 20260504193806 | 67 | 220 | 2.0 | 4.0 | 0.00 | 0.00 | 0.00 | 51 | 1012.3 |
| 20260504193636 | 67 | 217 | 2.0 | 4.0 | 0.00 | 0.00 | 0.00 | 51 | 1012.3 |
| 20260504193552 | 67 | 215 | 2.0 | 4.0 | 0.00 | 0.00 | 0.00 | 51 | 1012.4 |
| 20260504193453 | 68 | 221 | 2.0 | 4.0 | 0.00 | 0.00 | 0.00 | 51 | 1012.2 |
| 20260504193348 | 68 | 227 | 2.0 | 4.0 | 0.00 | 0.00 | 0.00 | 51 | 1012.2 |
| 20260504193247 | 68 | 230 | 2.0 | 3.0 | 0.00 | 0.00 | 0.00 | 51 | 1012.1 |
| 20260504193146 | 68 | 228 | 3.0 | 3.0 | 0.00 | 0.00 | 0.00 | 51 | 1012.1 |
| 20260504193130 | 68 | 221 | 2.0 | 3.0 | 0.00 | 0.00 | 0.00 | 51 | 1012.3 |
| 20260504193047 | 67 | 209 | 1.0 | 3.0 | 0.00 | 0.00 | 0.00 | 51 | 1012.3 |
| 20260504192947 | 67 | 227 | 2.0 | 3.0 | 0.00 | 0.00 | 0.00 | 51 | 1012.2 |
| 20260504192847 | 67 | 220 | 1.0 | 3.0 | 0.00 | 0.00 | 0.00 | 51 | 1012.2 |
| 20260504192746 | 67 | 211 | 1.0 | 3.0 | 0.00 | 0.00 | 0.00 | 51 | 1012.4 |
| 20260504192648 | 67 | 224 | 0.0 | 3.0 | 0.00 | 0.00 | 0.00 | 51 | 1012.4 |
| 20260504192632 | 67 | 224 | 0.0 | 3.0 | 0.00 | 0.00 | 0.00 | 51 | 1012.1 |
| 20260504192622 | 68 | 199 | 0.0 | 3.0 | 0.00 | 0.00 | 0.00 | 51 | 1012.1 |
| 20260504192606 | 68 | 201 | 0.0 | 3.0 | 0.00 | 0.00 | 0.00 | 51 | 1012.2 |
| 20260504192308 | 68 | 200 | 0.0 | 3.0 | 0.00 | 0.00 | 0.00 | 51 | 1012.0 |
| 20260504192251 | 68 | 205 | 0.0 | 3.0 | 0.00 | 0.00 | 0.00 | 51 | 1012.0 |
| 20260504192240 | 68 | 211 | 0.0 | 3.0 | 0.00 | 0.00 | 0.00 | 51 | 1012.0 |
| 20260504192227 | 68 | 211 | 1.0 | 3.0 | 0.00 | 0.00 | 0.00 | 50 | 1012.2 |
| 20260504192212 | 68 | 208 | 0.0 | 3.0 | 0.00 | 0.00 | 0.00 | 50 | 1012.1 |
| 20260504191630 | 68 | 211 | 0.0 | 2.0 | 0.00 | 0.00 | 0.00 | 51 | 1012.0 |
| 20260504191531 | 68 | 211 | 1.0 | 2.0 | 0.00 | 0.00 | 0.00 | 51 | 1012.2 |
| 20260504191504 | 67 | 188 | 0.0 | 0.0 | 0.00 | 0.00 | 0.00 | 54 | 1012.4 |
| 20260504191459 | 67 | 186 | 0.0 | 1.0 | 0.00 | 0.00 | 0.00 | 54 | 1012.1 |
| 20260504191451 | 68 | 210 | 0.0 | 2.0 | 0.00 | 0.00 | 0.00 | 50 | 1012.1 |
| 20260504191435 | 68 | 210 | 0.0 | 2.0 | 0.00 | 0.00 | 0.00 | 50 | 1012.2 |
| 20260504191418 | 68 | 220 | 1.0 | 2.0 | 0.00 | 0.00 | 0.00 | 50 | 1012.2 |
| 20260504191151 | 68 | 204 | 0.0 | 2.0 | 0.00 | 0.00 | 0.00 | 51 | 1012.1 |
| 20260504191132 | 67 | 211 | 0.0 | 2.0 | 0.00 | 0.00 | 0.00 | 51 | 1012.0 |
| 20260504191116 | 67 | 213 | 1.0 | 2.0 | 0.00 | 0.00 | 0.00 | 51 | 1012.2 |
| 20260504190838 | 67 | 203 | 0.0 | 1.0 | 0.00 | 0.00 | 0.00 | 52 | 1012.4 |
| 20260504190815 | 67 | 198 | 0.0 | 1.0 | 0.00 | 0.00 | 0.00 | 52 | 1012.4 |
| 20260504190759 | 67 | 196 | 0.0 | 1.0 | 0.00 | 0.00 | 0.00 | 52 | 1012.3 |
| 20260504190743 | 67 | 198 | 0.0 | 1.0 | 0.00 | 0.00 | 0.00 | 52 | 1012.1 |
| 20260504190727 | 67 | 191 | 0.0 | 0.0 | 0.00 | 0.00 | 0.00 | 53 | 1012.2 |
| 20260504190711 | 67 | 188 | 0.0 | 0.0 | 0.00 | 0.00 | 0.00 | 54 | 1012.3 |
| 20260504190649 | 67 | 188 | 0.0 | 0.0 | 0.00 | 0.00 | 0.00 | 53 | 1012.1 |
| 20260504190412 | 67 | 188 | 0.0 | 0.0 | 0.00 | 0.00 | 0.00 | 54 | 1012.3 |
| 20260504190357 | 67 | 188 | 0.0 | 0.0 | 0.00 | 0.00 | 0.00 | 54 | 1012.1 |
| 20260504190341 | 67 | 188 | 0.0 | 0.0 | 0.00 | 0.00 | 0.00 | 54 | 1012.0 |
| 20260504190324 | 67 | 188 | 0.0 | 0.0 | 0.00 | 0.00 | 0.00 | 54 | 1012.4 |
| 20260504190046 | 67 | 188 | 0.0 | 1.0 | 0.00 | 0.00 | 0.00 | 54 | 1012.0 |
| 20260504185550 | 67 | 186 | 0.0 | 1.0 | 0.00 | 0.00 | 0.00 | 54 | 1012.0 |
| 20260504185533 | 67 | 186 | 0.0 | 1.0 | 0.00 | 0.00 | 0.00 | 54 | 1012.1 |
| 20260504185305 | 68 | 185 | 0.0 | 4.0 | 0.00 | 0.00 | 0.00 | 54 | 1012.1 |
| 20260504184724 | 68 | 190 | 0.0 | 4.0 | 0.00 | 0.00 | 0.00 | 53 | 1012.0 |
| 20260504184657 | 68 | 190 | 0.0 | 4.0 | 0.00 | 0.00 | 0.00 | 52 | 1012.2 |
| 20260504184643 | 68 | 191 | 0.0 | 4.0 | 0.00 | 0.00 | 0.00 | 52 | 1011.8 |
| 20260504184407 | 68 | 189 | 0.0 | 1.0 | 0.00 | 0.00 | 0.00 | 51 | 1011.8 |
| 20260504184358 | 68 | 189 | 0.0 | 4.0 | 0.00 | 0.00 | 0.00 | 52 | 1012.0 |
| 20260504184342 | 68 | 194 | 0.0 | 4.0 | 0.00 | 0.00 | 0.00 | 52 | 1011.9 |
| 20260504184320 | 68 | 204 | 4.0 | 4.0 | 0.00 | 0.00 | 0.00 | 50 | 1011.8 |
| 20260504184053 | 68 | 185 | 0.0 | 1.0 | 0.00 | 0.00 | 0.00 | 51 | 1011.8 |
| 20260504184037 | 69 | 190 | 0.0 | 1.0 | 0.00 | 0.00 | 0.00 | 51 | 1011.9 |
| 20260504184022 | 68 | 194 | 0.0 | 1.0 | 0.00 | 0.00 | 0.00 | 51 | 1011.9 |
| 20260504184006 | 68 | 194 | 0.0 | 1.0 | 0.00 | 0.00 | 0.00 | 52 | 1011.9 |
| 20260504183948 | 68 | 189 | 0.0 | 1.0 | 0.00 | 0.00 | 0.00 | 51 | 1011.8 |
| 20260504183722 | 68 | 194 | 0.0 | 1.0 | 0.00 | 0.00 | 0.00 | 52 | 1012.0 |
| 20260504183705 | 68 | 196 | 0.0 | 1.0 | 0.00 | 0.00 | 0.00 | 52 | 1011.8 |
| 20260504183202 | 68 | 191 | 0.0 | 0.0 | 0.00 | 0.00 | 0.00 | 51 | 1011.8 |
| 20260504183144 | 69 | 191 | 0.0 | 0.0 | 0.00 | 0.00 | 0.00 | 51 | 1012.0 |
| 20260504182824 | 69 | 191 | 0.0 | 0.0 | 0.00 | 0.00 | 0.00 | 51 | 1012.0 |
| 20260504182723 | 69 | 191 | 0.0 | 0.0 | 0.00 | 0.00 | 0.00 | 51 | 1011.9 |
| 20260504182624 | 69 | 191 | 0.0 | 0.0 | 0.00 | 0.00 | 0.00 | 51 | 1012.1 |
| 20260504182524 | 69 | 191 | 0.0 | 0.0 | 0.00 | 0.00 | 0.00 | 52 | 1011.8 |
| 20260504182501 | 69 | 191 | 0.0 | 0.0 | 0.00 | 0.00 | 0.00 | 52 | 1011.7 |
| 20260504182445 | 69 | 191 | 0.0 | 0.0 | 0.00 | 0.00 | 0.00 | 51 | 1012.0 |
| 20260504182428 | 69 | 191 | 0.0 | 0.0 | 0.00 | 0.00 | 0.00 | 51 | 1012.0 |
| 20260504182406 | 69 | 191 | 0.0 | 0.0 | 0.00 | 0.00 | 0.00 | 51 | 1011.9 |
| 20260504182347 | 69 | 191 | 0.0 | 0.0 | 0.00 | 0.00 | 0.00 | 51 | 1011.7 |
| 20260504182330 | 69 | 191 | 0.0 | 0.0 | 0.00 | 0.00 | 0.00 | 51 | 1011.8 |
| 20260504181624 | 69 | 193 | 0.0 | 1.0 | 0.00 | 0.00 | 0.00 | 51 | 1011.7 |
| 20260504181523 | 69 | 186 | 0.0 | 1.0 | 0.00 | 0.00 | 0.00 | 51 | 1012.0 |
| 20260504181423 | 69 | 188 | 0.0 | 1.0 | 0.00 | 0.00 | 0.00 | 51 | 1011.6 |
| 20260504181324 | 70 | 191 | 0.0 | 1.0 | 0.00 | 0.00 | 0.00 | 50 | 1011.8 |
| 20260504181252 | 70 | 181 | 0.0 | 1.0 | 0.00 | 0.00 | 0.00 | 51 | 1011.8 |
| 20260504181228 | 70 | 190 | 0.0 | 1.0 | 0.00 | 0.00 | 0.00 | 50 | 1011.7 |
| 20260504181211 | 70 | 190 | 0.0 | 1.0 | 0.00 | 0.00 | 0.00 | 51 | 1011.7 |
| 20260504181155 | 70 | 191 | 0.0 | 1.0 | 0.00 | 0.00 | 0.00 | 50 | 1012.0 |
| 20260504181140 | 70 | 191 | 0.0 | 1.0 | 0.00 | 0.00 | 0.00 | 50 | 1011.6 |
| 20260504181125 | 70 | 192 | 0.0 | 1.0 | 0.00 | 0.00 | 0.00 | 50 | 1011.9 |
| 20260504180857 | 70 | 191 | 0.0 | 0.0 | 0.00 | 0.00 | 0.00 | 50 | 1011.6 |
| 20260504180842 | 70 | 192 | 0.0 | 0.0 | 0.00 | 0.00 | 0.00 | 50 | 1011.8 |
| 20260504180346 | 70 | 219 | 0.0 | 0.0 | 0.00 | 0.00 | 0.00 | 50 | 1012.1 |
| 20260504180119 | 70 | 192 | 0.0 | 0.0 | 0.00 | 0.00 | 0.00 | 50 | 1011.8 |
| 20260504180018 | 70 | 191 | 0.0 | 0.0 | 0.00 | 0.00 | 0.00 | 50 | 1011.7 |
| 20260504175917 | 70 | 188 | 0.0 | 0.0 | 0.00 | 0.00 | 0.00 | 50 | 1011.8 |
| 20260504175859 | 71 | 190 | 0.0 | 0.0 | 0.00 | 0.00 | 0.00 | 50 | 1011.8 |
| 20260504175843 | 71 | 194 | 0.0 | 0.0 | 0.00 | 0.00 | 0.00 | 50 | 1011.8 |
| 20260504175617 | 71 | 198 | 0.0 | 0.0 | 0.00 | 0.00 | 0.00 | 50 | 1011.8 |
| 20260504175517 | 71 | 192 | 0.0 | 0.0 | 0.00 | 0.00 | 0.00 | 49 | 1011.9 |
| 20260504175418 | 71 | 193 | 0.0 | 0.0 | 0.00 | 0.00 | 0.00 | 49 | 1012.1 |
| 20260504175318 | 71 | 188 | 0.0 | 0.0 | 0.00 | 0.00 | 0.00 | 49 | 1012.0 |
| 20260504175219 | 71 | 188 | 0.0 | 0.0 | 0.00 | 0.00 | 0.00 | 49 | 1011.9 |
| 20260504175117 | 71 | 191 | 0.0 | 0.0 | 0.00 | 0.00 | 0.00 | 49 | 1011.8 |
| 20260504175018 | 71 | 191 | 0.0 | 0.0 | 0.00 | 0.00 | 0.00 | 49 | 1011.9 |
| 20260504174953 | 71 | 190 | 0.0 | 0.0 | 0.00 | 0.00 | 0.00 | 49 | 1011.9 |
| 20260504174936 | 71 | 189 | 0.0 | 0.0 | 0.00 | 0.00 | 0.00 | 49 | 1011.7 |
| 20260504174921 | 71 | 187 | 0.0 | 0.0 | 0.00 | 0.00 | 0.00 | 49 | 1011.6 |
| 20260504174858 | 71 | 193 | 0.0 | 0.0 | 0.00 | 0.00 | 0.00 | 48 | 1012.0 |
| 20260504174841 | 71 | 190 | 0.0 | 0.0 | 0.00 | 0.00 | 0.00 | 48 | 1011.9 |
| 20260504174345 | 71 | 186 | 0.0 | 2.0 | 0.00 | 0.00 | 0.00 | 48 | 1011.8 |
| 20260504174118 | 71 | 188 | 0.0 | 2.0 | 0.00 | 0.00 | 0.00 | 48 | 1011.8 |
| 20260504174017 | 71 | 188 | 0.0 | 2.0 | 0.00 | 0.00 | 0.00 | 48 | 1011.8 |
| 20260504173917 | 71 | 186 | 0.0 | 2.0 | 0.00 | 0.00 | 0.00 | 48 | 1011.9 |
| 20260504173816 | 72 | 186 | 0.0 | 2.0 | 0.00 | 0.00 | 0.00 | 48 | 1011.8 |
| 20260504173717 | 72 | 189 | 0.0 | 2.0 | 0.00 | 0.00 | 0.00 | 49 | 1011.8 |
| 20260504173618 | 72 | 189 | 0.0 | 2.0 | 0.00 | 0.00 | 0.00 | 48 | 1011.6 |
| 20260504173541 | 72 | 191 | 0.0 | 2.0 | 0.00 | 0.00 | 0.00 | 48 | 1011.8 |
| 20260504173524 | 72 | 204 | 0.0 | 1.0 | 0.00 | 0.00 | 0.00 | 47 | 1011.8 |
| 20260504173206 | 72 | 192 | 0.0 | 1.0 | 0.00 | 0.00 | 0.00 | 47 | 1011.9 |
| 20260504173107 | 72 | 188 | 0.0 | 1.0 | 0.00 | 0.00 | 0.00 | 48 | 1011.8 |
| 20260504173058 | 72 | 192 | 0.0 | 1.0 | 0.00 | 0.00 | 0.00 | 47 | 1011.6 |
| 20260504172920 | 72 | 196 | 0.0 | 1.0 | 0.00 | 0.00 | 0.00 | 47 | 1011.7 |
| 20260504172811 | 72 | 188 | 0.0 | 2.0 | 0.00 | 0.00 | 0.00 | 47 | 1011.4 |
| 20260504172706 | 72 | 191 | 0.0 | 2.0 | 0.00 | 0.00 | 0.00 | 47 | 1012.0 |
| 20260504172606 | 72 | 188 | 0.0 | 2.0 | 0.00 | 0.00 | 0.00 | 47 | 1011.8 |
| 20260504172541 | 73 | 182 | 0.0 | 2.0 | 0.00 | 0.00 | 0.00 | 47 | 1011.6 |
| 20260504172533 | 72 | 188 | 0.0 | 2.0 | 0.00 | 0.00 | 0.00 | 47 | 1011.7 |
| 20260504172516 | 72 | 179 | 0.0 | 2.0 | 0.00 | 0.00 | 0.00 | 47 | 1011.6 |
| 20260504172501 | 72 | 194 | 0.0 | 2.0 | 0.00 | 0.00 | 0.00 | 47 | 1011.6 |
| 20260504172445 | 72 | 188 | 0.0 | 2.0 | 0.00 | 0.00 | 0.00 | 47 | 1011.6 |
| 20260504172420 | 72 | 191 | 0.0 | 2.0 | 0.00 | 0.00 | 0.00 | 47 | 1011.6 |
| 20260504171935 | 72 | 190 | 0.0 | 2.0 | 0.00 | 0.00 | 0.00 | 47 | 1011.7 |
| 20260504171918 | 73 | 191 | 0.0 | 2.0 | 0.00 | 0.00 | 0.00 | 47 | 1011.6 |
| 20260504171903 | 73 | 176 | 0.0 | 2.0 | 0.00 | 0.00 | 0.00 | 47 | 1011.7 |
| 20260504171844 | 73 | 182 | 0.0 | 2.0 | 0.00 | 0.00 | 0.00 | 47 | 1011.6 |
| 20260504171619 | 73 | 188 | 0.0 | 2.0 | 0.00 | 0.00 | 0.00 | 47 | 1011.7 |
| 20260504171259 | 73 | 196 | 0.0 | 2.0 | 0.00 | 0.00 | 0.00 | 46 | 1011.6 |
| 20260504171158 | 73 | 173 | 0.0 | 2.0 | 0.00 | 0.00 | 0.00 | 46 | 1011.6 |
| 20260504171059 | 73 | 182 | 0.0 | 2.0 | 0.00 | 0.00 | 0.00 | 46 | 1011.6 |
| 20260504171036 | 73 | 175 | 1.0 | 2.0 | 0.00 | 0.00 | 0.00 | 46 | 1011.7 |
| 20260504171020 | 73 | 192 | 0.0 | 1.0 | 0.00 | 0.00 | 0.00 | 46 | 1011.7 |
| 20260504170654 | 73 | 188 | 0.0 | 1.0 | 0.00 | 0.00 | 0.00 | 46 | 1011.5 |
| 20260504170607 | 73 | 183 | 0.0 | 1.0 | 0.00 | 0.00 | 0.00 | 46 | 1011.5 |
| 20260504170522 | 74 | 187 | 0.0 | 4.0 | 0.00 | 0.00 | 0.00 | 46 | 1011.8 |
| 20260504170516 | 74 | 174 | 0.0 | 0.0 | 0.00 | 0.00 | 0.00 | 45 | 1011.5 |
| 20260504170510 | 73 | 184 | 0.0 | 2.0 | 0.00 | 0.00 | 0.00 | 46 | 1011.7 |
| 20260504170453 | 73 | 227 | 0.0 | 2.0 | 0.00 | 0.00 | 0.00 | 46 | 1011.4 |
| 20260504170436 | 73 | 185 | 0.0 | 2.0 | 0.00 | 0.00 | 0.00 | 46 | 1011.6 |
| 20260504170421 | 74 | 182 | 0.0 | 4.0 | 0.00 | 0.00 | 0.00 | 46 | 1011.5 |
| 20260504170402 | 74 | 187 | 0.0 | 4.0 | 0.00 | 0.00 | 0.00 | 46 | 1011.8 |
| 20260504170137 | 74 | 191 | 0.0 | 4.0 | 0.00 | 0.00 | 0.00 | 46 | 1011.5 |
| 20260504170121 | 74 | 176 | 0.0 | 4.0 | 0.00 | 0.00 | 0.00 | 46 | 1011.5 |
| 20260504170104 | 74 | 194 | 0.0 | 4.0 | 0.00 | 0.00 | 0.00 | 46 | 1011.6 |
| 20260504151146 | 76 | 238 | 1.0 | 7.0 | 0.00 | 0.00 | 0.00 | 42 | 1011.9 |
| 20260504150901 | 76 | 174 | 1.0 | 11.0 | 0.00 | 0.00 | 0.00 | 43 | 1012.1 |
| 20260504150846 | 76 | 202 | 1.0 | 11.0 | 0.00 | 0.00 | 0.00 | 42 | 1012.1 |
| 20260504150610 | 76 | 188 | 0.0 | 11.0 | 0.00 | 0.00 | 0.00 | 43 | 1011.7 |
| 20260504150524 | 76 | 184 | 0.0 | 11.0 | 0.00 | 0.00 | 0.00 | 42 | 1011.9 |
| 20260504150425 | 76 | 203 | 0.0 | 11.0 | 0.00 | 0.00 | 0.00 | 42 | 1011.9 |
| 20260504150327 | 76 | 191 | 1.0 | 11.0 | 0.00 | 0.00 | 0.00 | 42 | 1011.9 |
| 20260504150221 | 76 | 194 | 3.0 | 11.0 | 0.00 | 0.00 | 0.00 | 42 | 1012.1 |
| 20260504150121 | 76 | 132 | 0.0 | 11.0 | 0.00 | 0.00 | 0.00 | 43 | 1011.9 |
| 20260504150107 | 76 | 201 | 1.0 | 11.0 | 0.00 | 0.00 | 0.00 | 42 | 1011.9 |
| 20260504141324 | 78 | 223 | 0.0 | 4.0 | 0.00 | 0.00 | 0.00 | 42 | 1012.3 |
| 20260504141308 | 78 | 182 | 0.0 | 4.0 | 0.00 | 0.00 | 0.00 | 42 | 1012.3 |
| 20260504141301 | 78 | 194 | 0.0 | 4.0 | 0.00 | 0.00 | 0.00 | 42 | 1012.3 |
| 20260504141026 | 78 | 224 | 1.0 | 6.0 | 0.00 | 0.00 | 0.00 | 42 | 1012.3 |
| 20260504140749 | 78 | 177 | 0.0 | 6.0 | 0.00 | 0.00 | 0.00 | 43 | 1012.3 |
| 20260504140510 | 78 | 181 | 0.0 | 6.0 | 0.00 | 0.00 | 0.00 | 43 | 1012.2 |
| 20260504140409 | 78 | 75 | 1.0 | 6.0 | 0.00 | 0.00 | 0.00 | 44 | 1012.4 |
| 20260504140307 | 78 | 163 | 0.0 | 6.0 | 0.00 | 0.00 | 0.00 | 43 | 1012.4 |
| 20260504140202 | 78 | 179 | 0.0 | 6.0 | 0.00 | 0.00 | 0.00 | 43 | 1012.4 |